Time,TemperatureF,DewpointF,PressureIn,WindDirection,WindDirectionDegrees,WindSpeedMPH,WindSpeedGustMPH,Humidity,HourlyPrecipIn,Conditions,Clouds,dailyrainin,SoftwareType,DateUTC
2013-09-19 01:15:00,66.5,65.0,30.10,ESE,103,0.0,0.0,95,0.00,,,0.00,Wunderground v.1.15,2013-09-19 05:15:00,
2013-09-19 01:29:00,66.3,64.8,30.10,ESE,103,0.0,0.0,95,0.00,,,0.00,Wunderground v.1.15,2013-09-19 05:29:00,
2013-09-19 01:32:00,66.2,64.7,30.10,ESE,103,0.0,0.0,95,0.00,,,0.00,Wunderground v.1.15,2013-09-19 05:32:00,
2013-09-19 01:36:00,66.2,64.7,30.10,ESE,103,0.0,0.0,95,0.00,,,0.00,Wunderground v.1.15,2013-09-19 05:36:00,
2013-09-19 01:41:00,66.2,64.7,30.10,ESE,103,0.0,0.0,95,0.00,,,0.00,Wunderground v.1.15,2013-09-19 05:41:00,
2013-09-19 01:46:00,66.2,64.7,30.10,ESE,103,0.0,0.0,95,0.00,,,0.00,Wunderground v.1.15,2013-09-19 05:46:00,
2013-09-19 01:48:00,66.2,64.7,30.10,ESE,103,0.0,0.0,95,0.00,,,0.00,Wunderground v.1.15,2013-09-19 05:48:00,
2013-09-19 01:50:00,66.2,64.7,30.10,ESE,103,0.0,0.0,95,0.00,,,0.00,Wunderground v.1.15,2013-09-19 05:50:00,
2013-09-19 01:51:00,66.2,64.7,30.10,ESE,103,0.0,0.0,95,0.00,,,0.00,Wunderground v.1.15,2013-09-19 05:51:00,
2013-09-19 01:54:00,66.2,64.7,30.10,ESE,103,0.0,0.0,95,0.00,,,0.00,Wunderground v.1.15,2013-09-19 05:54:00,
2013-09-19 01:57:00,66.2,65.0,30.10,ESE,103,0.0,0.0,96,0.00,,,0.00,Wunderground v.1.15,2013-09-19 05:57:00,
2013-09-19 01:58:00,66.2,65.0,30.10,ESE,103,0.0,0.0,96,0.00,,,0.00,Wunderground v.1.15,2013-09-19 05:58:00,
2013-09-19 02:01:00,66.2,65.0,30.10,ESE,103,0.0,0.0,96,0.00,,,0.00,Wunderground v.1.15,2013-09-19 06:01:00,
2013-09-19 02:04:00,66.2,65.0,30.10,ESE,103,0.0,0.0,96,0.00,,,0.00,Wunderground v.1.15,2013-09-19 06:04:00,
2013-09-19 02:06:00,66.2,65.0,30.10,ESE,103,0.0,0.0,96,0.00,,,0.00,Wunderground v.1.15,2013-09-19 06:06:00,
2013-09-19 02:08:00,66.2,65.0,30.10,ESE,103,0.0,0.0,96,0.00,,,0.00,Wunderground v.1.15,2013-09-19 06:08:00,
2013-09-19 02:11:00,66.2,64.7,30.10,ESE,103,0.0,0.0,95,0.00,,,0.00,Wunderground v.1.15,2013-09-19 06:11:00,
2013-09-19 02:15:00,66.2,64.7,30.10,ESE,103,0.0,0.0,95,0.00,,,0.00,Wunderground v.1.15,2013-09-19 06:15:00,
2013-09-19 02:17:00,66.2,64.7,30.10,ESE,103,0.0,0.0,95,0.00,,,0.00,Wunderground v.1.15,2013-09-19 06:17:00,
2013-09-19 02:20:00,66.2,64.7,30.10,ESE,103,0.0,0.0,95,0.00,,,0.00,Wunderground v.1.15,2013-09-19 06:20:00,
2013-09-19 02:22:00,66.1,64.6,30.10,ESE,103,0.0,0.0,95,0.00,,,0.00,Wunderground v.1.15,2013-09-19 06:22:00,
2013-09-19 02:26:00,66.1,64.6,30.10,ESE,103,0.0,0.0,95,0.00,,,0.00,Wunderground v.1.15,2013-09-19 06:26:00,
2013-09-19 02:27:00,66.1,64.9,30.10,ESE,103,0.0,0.0,96,0.00,,,0.00,Wunderground v.1.15,2013-09-19 06:27:00,
2013-09-19 02:30:00,66.1,64.9,30.10,ESE,103,0.0,0.0,96,0.00,,,0.00,Wunderground v.1.15,2013-09-19 06:30:00,
2013-09-19 02:31:00,66.1,64.9,30.10,ESE,103,0.0,0.0,96,0.00,,,0.00,Wunderground v.1.15,2013-09-19 06:31:00,
2013-09-19 02:32:00,66.1,64.9,30.10,ESE,103,0.0,0.0,96,0.00,,,0.00,Wunderground v.1.15,2013-09-19 06:32:00,
2013-09-19 02:33:00,66.1,64.9,30.10,ESE,103,0.0,0.0,96,0.00,,,0.00,Wunderground v.1.15,2013-09-19 06:33:00,
2013-09-19 02:37:00,66.0,64.8,30.10,ESE,103,0.0,0.0,96,0.00,,,0.00,Wunderground v.1.15,2013-09-19 06:37:00,
2013-09-19 02:39:00,66.0,64.8,30.10,ESE,103,0.0,0.0,96,0.00,,,0.00,Wunderground v.1.15,2013-09-19 06:39:00,
2013-09-19 02:41:00,66.0,64.8,30.10,ESE,103,0.0,0.0,96,0.00,,,0.00,Wunderground v.1.15,2013-09-19 06:41:00,
2013-09-19 02:43:00,65.9,64.7,30.10,ESE,103,0.0,0.0,96,0.00,,,0.00,Wunderground v.1.15,2013-09-19 06:43:00,
2013-09-19 02:48:00,65.9,64.7,30.10,ESE,103,0.0,0.0,96,0.00,,,0.00,Wunderground v.1.15,2013-09-19 06:48:00,
2013-09-19 02:50:00,65.8,64.6,30.10,ESE,103,0.0,0.0,96,0.00,,,0.00,Wunderground v.1.15,2013-09-19 06:50:00,
2013-09-19 02:53:00,65.8,64.6,30.10,ESE,103,0.0,0.0,96,0.00,,,0.00,Wunderground v.1.15,2013-09-19 06:53:00,
2013-09-19 02:55:00,65.8,64.6,30.10,ESE,103,0.0,0.0,96,0.00,,,0.00,Wunderground v.1.15,2013-09-19 06:55:00,
2013-09-19 02:57:00,65.7,64.5,30.10,ESE,103,0.0,0.0,96,0.00,,,0.00,Wunderground v.1.15,2013-09-19 06:57:00,
2013-09-19 02:59:00,65.7,64.5,30.10,ESE,103,0.0,0.0,96,0.00,,,0.00,Wunderground v.1.15,2013-09-19 06:59:00,
2013-09-19 03:01:00,65.7,64.5,30.10,ESE,103,0.0,0.0,96,0.00,,,0.00,Wunderground v.1.15,2013-09-19 07:01:00,
2013-09-19 03:03:00,65.7,64.5,30.10,ESE,103,0.0,0.0,96,0.00,,,0.00,Wunderground v.1.15,2013-09-19 07:03:00,
2013-09-19 03:04:00,65.7,64.5,30.10,ESE,103,0.0,0.0,96,0.00,,,0.00,Wunderground v.1.15,2013-09-19 07:04:00,
2013-09-19 03:06:00,65.7,64.5,30.10,ESE,103,0.0,0.0,96,0.00,,,0.00,Wunderground v.1.15,2013-09-19 07:06:00,
2013-09-19 03:11:00,65.7,64.5,30.10,ESE,103,0.0,0.0,96,0.00,,,0.00,Wunderground v.1.15,2013-09-19 07:11:00,
2013-09-19 03:13:00,65.8,64.6,30.10,ESE,103,0.0,0.0,96,0.00,,,0.00,Wunderground v.1.15,2013-09-19 07:13:00,
2013-09-19 03:15:00,65.7,64.5,30.10,ESE,103,0.0,0.0,96,0.00,,,0.00,Wunderground v.1.15,2013-09-19 07:15:00,
2013-09-19 03:17:00,65.7,64.5,30.09,ESE,103,0.0,0.0,96,0.00,,,0.00,Wunderground v.1.15,2013-09-19 07:17:00,
2013-09-19 03:20:00,65.7,64.5,30.10,ESE,103,0.0,0.0,96,0.00,,,0.00,Wunderground v.1.15,2013-09-19 07:20:00,
2013-09-19 03:23:00,65.7,64.5,30.09,ESE,103,0.0,0.0,96,0.00,,,0.00,Wunderground v.1.15,2013-09-19 07:23:00,
2013-09-19 03:25:00,65.6,64.4,30.09,ESE,103,0.0,0.0,96,0.00,,,0.00,Wunderground v.1.15,2013-09-19 07:25:00,
2013-09-19 03:28:00,65.6,64.4,30.09,ESE,103,0.0,0.0,96,0.00,,,0.00,Wunderground v.1.15,2013-09-19 07:28:00,
2013-09-19 03:30:00,65.6,64.4,30.09,ESE,103,0.0,0.0,96,0.00,,,0.00,Wunderground v.1.15,2013-09-19 07:30:00,
2013-09-19 03:33:00,65.6,64.4,30.09,ESE,103,0.0,0.0,96,0.00,,,0.00,Wunderground v.1.15,2013-09-19 07:33:00,
2013-09-19 03:35:00,65.6,64.4,30.09,ESE,103,0.0,0.0,96,0.00,,,0.00,Wunderground v.1.15,2013-09-19 07:35:00,
2013-09-19 03:36:00,65.6,64.4,30.09,ESE,103,0.0,0.0,96,0.00,,,0.00,Wunderground v.1.15,2013-09-19 07:36:00,
2013-09-19 03:41:00,65.6,64.4,30.09,ESE,103,0.0,0.0,96,0.00,,,0.00,Wunderground v.1.15,2013-09-19 07:41:00,
2013-09-19 03:44:00,65.6,64.4,30.09,ESE,103,0.0,0.0,96,0.00,,,0.00,Wunderground v.1.15,2013-09-19 07:44:00,
2013-09-19 03:46:00,65.6,64.4,30.09,ESE,103,0.0,0.0,96,0.00,,,0.00,Wunderground v.1.15,2013-09-19 07:46:00,
2013-09-19 03:47:00,65.6,64.4,30.09,ESE,103,0.0,0.0,96,0.00,,,0.00,Wunderground v.1.15,2013-09-19 07:47:00,
2013-09-19 03:51:00,65.6,64.4,30.09,ESE,103,0.0,0.0,96,0.00,,,0.00,Wunderground v.1.15,2013-09-19 07:51:00,
2013-09-19 03:53:00,65.6,64.4,30.10,ESE,103,0.0,0.0,96,0.00,,,0.00,Wunderground v.1.15,2013-09-19 07:53:00,
2013-09-19 03:54:00,65.6,64.4,30.09,ESE,103,0.0,0.0,96,0.00,,,0.00,Wunderground v.1.15,2013-09-19 07:54:00,
2013-09-19 03:57:00,65.6,64.4,30.10,ESE,103,0.0,0.0,96,0.00,,,0.00,Wunderground v.1.15,2013-09-19 07:57:00,
2013-09-19 03:59:00,65.7,64.5,30.10,ESE,103,0.0,0.0,96,0.00,,,0.00,Wunderground v.1.15,2013-09-19 07:59:00,
2013-09-19 04:02:00,65.7,64.5,30.09,ESE,103,0.0,0.0,96,0.00,,,0.00,Wunderground v.1.15,2013-09-19 08:02:00,
2013-09-19 04:05:00,65.7,64.5,30.09,ESE,103,0.0,0.0,96,0.00,,,0.00,Wunderground v.1.15,2013-09-19 08:05:00,
2013-09-19 04:06:00,65.7,64.5,30.09,ESE,103,0.0,0.0,96,0.00,,,0.00,Wunderground v.1.15,2013-09-19 08:06:00,
2013-09-19 04:07:00,65.7,64.5,30.09,ESE,103,0.0,0.0,96,0.00,,,0.00,Wunderground v.1.15,2013-09-19 08:07:00,
2013-09-19 04:08:00,65.7,64.5,30.09,ESE,103,0.0,0.0,96,0.00,,,0.00,Wunderground v.1.15,2013-09-19 08:08:00,
2013-09-19 04:09:00,65.7,64.5,30.09,ESE,103,0.0,0.0,96,0.00,,,0.00,Wunderground v.1.15,2013-09-19 08:09:00,
2013-09-19 04:15:00,65.6,64.4,30.09,ESE,103,0.0,0.0,96,0.00,,,0.00,Wunderground v.1.15,2013-09-19 08:15:00,
2013-09-19 04:18:00,65.6,64.4,30.09,ESE,103,0.0,0.0,96,0.00,,,0.00,Wunderground v.1.15,2013-09-19 08:18:00,
2013-09-19 04:19:00,65.6,64.4,30.09,ESE,103,0.0,0.0,96,0.00,,,0.00,Wunderground v.1.15,2013-09-19 08:19:00,
2013-09-19 04:23:00,65.6,64.4,30.09,SW,227,0.0,0.0,96,0.00,,,0.00,Wunderground v.1.15,2013-09-19 08:23:00,
2013-09-19 04:26:00,65.6,64.4,30.09,SW,227,0.0,0.0,96,0.00,,,0.00,Wunderground v.1.15,2013-09-19 08:26:00,
2013-09-19 04:28:00,65.6,64.4,30.09,SW,227,0.0,1.0,96,0.00,,,0.00,Wunderground v.1.15,2013-09-19 08:28:00,
2013-09-19 04:29:00,65.7,64.5,30.09,SSW,208,0.0,1.0,96,0.00,,,0.00,Wunderground v.1.15,2013-09-19 08:29:00,
2013-09-19 04:31:00,65.7,64.5,30.09,SSW,208,0.0,1.0,96,0.00,,,0.00,Wunderground v.1.15,2013-09-19 08:31:00,
2013-09-19 04:34:00,65.6,64.4,30.09,SSW,209,0.0,1.0,96,0.00,,,0.00,Wunderground v.1.15,2013-09-19 08:34:00,
2013-09-19 04:36:00,65.6,64.4,30.09,SSW,208,0.0,0.0,96,0.00,,,0.00,Wunderground v.1.15,2013-09-19 08:36:00,
2013-09-19 04:39:00,65.6,64.4,30.09,SSW,208,0.0,0.0,96,0.00,,,0.00,Wunderground v.1.15,2013-09-19 08:39:00,
2013-09-19 04:40:00,65.6,64.4,30.09,SSW,209,0.0,0.0,96,0.00,,,0.00,Wunderground v.1.15,2013-09-19 08:40:00,
2013-09-19 04:41:00,65.6,64.4,30.09,SSW,210,0.0,0.0,96,0.00,,,0.00,Wunderground v.1.15,2013-09-19 08:41:00,
2013-09-19 04:42:00,65.6,64.4,30.09,SSW,210,0.0,0.0,96,0.00,,,0.00,Wunderground v.1.15,2013-09-19 08:42:00,
2013-09-19 04:43:00,65.6,64.4,30.09,SSW,210,0.0,0.0,96,0.00,,,0.00,Wunderground v.1.15,2013-09-19 08:43:00,
2013-09-19 04:45:00,65.6,64.4,30.09,SSW,210,0.0,0.0,96,0.00,,,0.00,Wunderground v.1.15,2013-09-19 08:45:00,
2013-09-19 04:46:00,65.6,64.4,30.09,SSW,210,0.0,0.0,96,0.00,,,0.00,Wunderground v.1.15,2013-09-19 08:46:00,
2013-09-19 04:49:00,65.6,64.4,30.09,SSW,210,0.0,0.0,96,0.00,,,0.00,Wunderground v.1.15,2013-09-19 08:49:00,
2013-09-19 04:50:00,65.6,64.4,30.09,SSW,210,0.0,0.0,96,0.00,,,0.00,Wunderground v.1.15,2013-09-19 08:50:00,
2013-09-19 04:53:00,65.6,64.4,30.09,SSW,210,0.0,0.0,96,0.00,,,0.00,Wunderground v.1.15,2013-09-19 08:53:00,
2013-09-19 04:55:00,65.6,64.4,30.09,SSW,210,0.0,0.0,96,0.00,,,0.00,Wunderground v.1.15,2013-09-19 08:55:00,
2013-09-19 04:56:00,65.6,64.4,30.09,SSW,210,0.0,0.0,96,0.00,,,0.00,Wunderground v.1.15,2013-09-19 08:56:00,
2013-09-19 04:58:00,65.7,64.5,30.09,SSW,210,0.0,0.0,96,0.00,,,0.00,Wunderground v.1.15,2013-09-19 08:58:00,
2013-09-19 05:01:00,65.8,64.6,30.09,SSW,210,0.0,0.0,96,0.00,,,0.00,Wunderground v.1.15,2013-09-19 09:01:00,
2013-09-19 05:03:00,65.8,64.6,30.09,SSW,210,0.0,0.0,96,0.00,,,0.00,Wunderground v.1.15,2013-09-19 09:03:00,
2013-09-19 05:04:00,65.8,64.6,30.09,SSW,210,0.0,0.0,96,0.00,,,0.00,Wunderground v.1.15,2013-09-19 09:04:00,
2013-09-19 05:05:00,65.8,64.6,30.09,SSW,210,0.0,0.0,96,0.00,,,0.00,Wunderground v.1.15,2013-09-19 09:05:00,
2013-09-19 05:07:00,65.8,64.6,30.09,SSW,210,0.0,0.0,96,0.00,,,0.00,Wunderground v.1.15,2013-09-19 09:07:00,
2013-09-19 05:09:00,65.8,64.6,30.09,SSW,210,0.0,0.0,96,0.00,,,0.00,Wunderground v.1.15,2013-09-19 09:09:00,
2013-09-19 05:10:00,65.8,64.6,30.09,SSW,210,0.0,0.0,96,0.00,,,0.00,Wunderground v.1.15,2013-09-19 09:10:00,
2013-09-19 05:12:00,65.7,64.5,30.09,SSW,210,0.0,0.0,96,0.00,,,0.00,Wunderground v.1.15,2013-09-19 09:12:00,
2013-09-19 05:15:00,65.7,64.5,30.09,SSW,210,0.0,0.0,96,0.00,,,0.00,Wunderground v.1.15,2013-09-19 09:15:00,
2013-09-19 05:17:00,65.7,64.5,30.09,SSE,165,0.0,1.0,96,0.00,,,0.00,Wunderground v.1.15,2013-09-19 09:17:00,
2013-09-19 05:18:00,65.6,64.4,30.09,SSE,165,0.0,1.0,96,0.00,,,0.00,Wunderground v.1.15,2013-09-19 09:18:00,
2013-09-19 05:22:00,65.6,64.4,30.09,SSE,165,0.0,1.0,96,0.00,,,0.00,Wunderground v.1.15,2013-09-19 09:22:00,
2013-09-19 05:23:00,65.6,64.4,30.09,SSE,165,0.0,1.0,96,0.00,,,0.00,Wunderground v.1.15,2013-09-19 09:23:00,
2013-09-19 05:24:00,65.6,64.4,30.09,SSE,165,0.0,1.0,96,0.00,,,0.00,Wunderground v.1.15,2013-09-19 09:24:00,
2013-09-19 05:29:00,65.7,64.5,30.09,SSE,163,0.0,0.0,96,0.00,,,0.00,Wunderground v.1.15,2013-09-19 09:29:00,
2013-09-19 05:30:00,65.7,64.5,30.09,SSE,163,0.0,0.0,96,0.00,,,0.00,Wunderground v.1.15,2013-09-19 09:30:00,
2013-09-19 05:36:00,65.8,64.6,30.09,SSE,155,0.0,0.0,96,0.00,,,0.00,Wunderground v.1.15,2013-09-19 09:36:00,
2013-09-19 05:37:00,65.8,64.6,30.09,SSE,155,0.0,0.0,96,0.00,,,0.00,Wunderground v.1.15,2013-09-19 09:37:00,
2013-09-19 05:38:00,65.9,64.7,30.09,SSE,155,0.0,0.0,96,0.00,,,0.00,Wunderground v.1.15,2013-09-19 09:38:00,
2013-09-19 05:39:00,65.9,64.7,30.09,SSE,155,0.0,0.0,96,0.00,,,0.00,Wunderground v.1.15,2013-09-19 09:39:00,
2013-09-19 05:41:00,65.9,64.7,30.09,SSE,155,0.0,0.0,96,0.00,,,0.00,Wunderground v.1.15,2013-09-19 09:41:00,
2013-09-19 05:43:00,65.8,64.6,30.09,SSE,155,0.0,0.0,96,0.00,,,0.00,Wunderground v.1.15,2013-09-19 09:43:00,
2013-09-19 05:46:00,65.8,64.6,30.10,SSE,155,0.0,0.0,96,0.00,,,0.00,Wunderground v.1.15,2013-09-19 09:46:00,
2013-09-19 05:47:00,65.9,64.7,30.09,SSE,155,0.0,0.0,96,0.00,,,0.00,Wunderground v.1.15,2013-09-19 09:47:00,
2013-09-19 05:52:00,65.9,64.7,30.10,SSE,155,0.0,0.0,96,0.00,,,0.00,Wunderground v.1.15,2013-09-19 09:52:00,
2013-09-19 05:54:00,65.9,64.7,30.10,SSE,155,0.0,0.0,96,0.00,,,0.00,Wunderground v.1.15,2013-09-19 09:54:00,
2013-09-19 05:57:00,66.0,64.8,30.10,SSE,155,0.0,0.0,96,0.00,,,0.00,Wunderground v.1.15,2013-09-19 09:57:00,
2013-09-19 05:58:00,66.0,64.8,30.10,SSE,155,0.0,0.0,96,0.00,,,0.00,Wunderground v.1.15,2013-09-19 09:58:00,
2013-09-19 06:00:00,66.0,64.8,30.10,SSE,155,0.0,0.0,96,0.00,,,0.00,Wunderground v.1.15,2013-09-19 10:00:00,
2013-09-19 06:04:00,65.9,64.7,30.09,SSE,155,0.0,0.0,96,0.00,,,0.00,Wunderground v.1.15,2013-09-19 10:04:00,
2013-09-19 06:05:00,65.9,64.7,30.09,SSE,155,0.0,0.0,96,0.00,,,0.00,Wunderground v.1.15,2013-09-19 10:05:00,
2013-09-19 06:06:00,65.9,64.7,30.09,SSE,155,0.0,0.0,96,0.00,,,0.00,Wunderground v.1.15,2013-09-19 10:06:00,
2013-09-19 06:12:00,65.8,64.6,30.09,SSE,155,0.0,0.0,96,0.00,,,0.00,Wunderground v.1.15,2013-09-19 10:12:00,
2013-09-19 06:14:00,65.8,64.6,30.09,SSE,155,0.0,0.0,96,0.00,,,0.00,Wunderground v.1.15,2013-09-19 10:14:00,
2013-09-19 06:18:00,65.7,64.5,30.09,SSE,155,0.0,1.0,96,0.00,,,0.00,Wunderground v.1.15,2013-09-19 10:18:00,
2013-09-19 06:21:00,65.7,64.5,30.09,SSE,155,0.0,1.0,96,0.00,,,0.00,Wunderground v.1.15,2013-09-19 10:21:00,
2013-09-19 06:22:00,65.7,64.5,30.09,SSE,155,0.0,1.0,96,0.00,,,0.00,Wunderground v.1.15,2013-09-19 10:22:00,
2013-09-19 06:25:00,65.7,64.5,30.10,SSE,155,0.0,0.0,96,0.00,,,0.00,Wunderground v.1.15,2013-09-19 10:25:00,
2013-09-19 06:26:00,65.7,64.5,30.10,SSE,155,0.0,0.0,96,0.00,,,0.00,Wunderground v.1.15,2013-09-19 10:26:00,
2013-09-19 06:29:00,65.6,64.4,30.10,SSE,155,0.0,0.0,96,0.00,,,0.00,Wunderground v.1.15,2013-09-19 10:29:00,
2013-09-19 06:30:00,65.6,64.4,30.10,SSE,155,0.0,0.0,96,0.00,,,0.00,Wunderground v.1.15,2013-09-19 10:30:00,
2013-09-19 06:33:00,65.6,64.4,30.10,South,185,0.0,2.0,96,0.00,,,0.00,Wunderground v.1.15,2013-09-19 10:33:00,
2013-09-19 06:34:00,65.6,64.4,30.10,South,186,0.0,2.0,96,0.00,,,0.00,Wunderground v.1.15,2013-09-19 10:34:00,
2013-09-19 06:36:00,65.6,64.4,30.10,SW,218,0.0,0.0,96,0.00,,,0.00,Wunderground v.1.15,2013-09-19 10:36:00,
2013-09-19 06:37:00,65.7,64.5,30.10,SW,218,0.0,0.0,96,0.00,,,0.00,Wunderground v.1.15,2013-09-19 10:37:00,
2013-09-19 06:38:00,65.7,64.5,30.10,SW,223,0.0,0.0,96,0.00,,,0.00,Wunderground v.1.15,2013-09-19 10:38:00,
2013-09-19 06:42:00,65.7,64.8,30.10,SW,223,0.0,0.0,97,0.00,,,0.00,Wunderground v.1.15,2013-09-19 10:42:00,
2013-09-19 06:43:00,65.7,64.8,30.11,SW,223,0.0,0.0,97,0.00,,,0.00,Wunderground v.1.15,2013-09-19 10:43:00,
2013-09-19 06:44:00,65.7,64.8,30.10,SW,223,0.0,0.0,97,0.00,,,0.00,Wunderground v.1.15,2013-09-19 10:44:00,
2013-09-19 06:48:00,65.7,64.8,30.10,SW,223,0.0,0.0,97,0.00,,,0.00,Wunderground v.1.15,2013-09-19 10:48:00,
2013-09-19 06:49:00,65.7,64.8,30.10,SW,223,0.0,0.0,97,0.00,,,0.00,Wunderground v.1.15,2013-09-19 10:49:00,
2013-09-19 06:52:00,65.7,64.8,30.11,SSE,158,0.0,1.0,97,0.00,,,0.00,Wunderground v.1.15,2013-09-19 10:52:00,
2013-09-19 06:54:00,65.7,64.8,30.11,SSE,158,0.0,1.0,97,0.00,,,0.00,Wunderground v.1.15,2013-09-19 10:54:00,
2013-09-19 06:57:00,65.7,64.5,30.11,SW,223,0.0,0.0,96,0.00,,,0.00,Wunderground v.1.15,2013-09-19 10:57:00,
2013-09-19 06:59:00,65.7,64.5,30.11,SW,223,0.0,0.0,96,0.00,,,0.00,Wunderground v.1.15,2013-09-19 10:59:00,
2013-09-19 07:00:00,65.7,64.5,30.11,SW,223,0.0,0.0,96,0.00,,,0.00,Wunderground v.1.15,2013-09-19 11:00:00,
2013-09-19 07:01:00,65.7,64.5,30.11,SW,223,0.0,0.0,96,0.00,,,0.00,Wunderground v.1.15,2013-09-19 11:01:00,
2013-09-19 07:04:00,65.7,64.8,30.11,SW,223,0.0,0.0,97,0.00,,,0.00,Wunderground v.1.15,2013-09-19 11:04:00,
2013-09-19 07:07:00,65.7,64.8,30.11,WSW,254,0.0,0.0,97,0.00,,,0.00,Wunderground v.1.15,2013-09-19 11:07:00,
2013-09-19 07:08:00,65.7,64.8,30.11,WSW,254,0.0,0.0,97,0.00,,,0.00,Wunderground v.1.15,2013-09-19 11:08:00,
2013-09-19 07:09:00,65.7,64.8,30.11,WSW,254,0.0,0.0,97,0.00,,,0.00,Wunderground v.1.15,2013-09-19 11:09:00,
2013-09-19 07:12:00,65.7,64.8,30.11,WSW,254,0.0,0.0,97,0.00,,,0.00,Wunderground v.1.15,2013-09-19 11:12:00,
2013-09-19 07:13:00,65.8,64.9,30.11,WSW,254,0.0,0.0,97,0.00,,,0.00,Wunderground v.1.15,2013-09-19 11:13:00,
2013-09-19 07:15:00,65.8,64.9,30.11,SSW,199,0.0,0.0,97,0.00,,,0.00,Wunderground v.1.15,2013-09-19 11:15:00,
2013-09-19 07:17:00,65.8,64.9,30.11,SSW,199,0.0,0.0,97,0.00,,,0.00,Wunderground v.1.15,2013-09-19 11:17:00,
2013-09-19 07:20:00,65.8,64.9,30.11,SSW,199,0.0,1.0,97,0.00,,,0.00,Wunderground v.1.15,2013-09-19 11:20:00,
2013-09-19 07:22:00,65.8,64.9,30.11,SSW,199,0.0,1.0,97,0.00,,,0.00,Wunderground v.1.15,2013-09-19 11:22:00,
2013-09-19 07:25:00,65.8,64.9,30.11,SSW,194,0.0,0.0,97,0.00,,,0.00,Wunderground v.1.15,2013-09-19 11:25:00,
2013-09-19 07:26:00,65.8,64.9,30.11,SSW,194,0.0,0.0,97,0.00,,,0.00,Wunderground v.1.15,2013-09-19 11:26:00,
2013-09-19 07:28:00,65.8,64.9,30.11,SSW,194,0.0,0.0,97,0.00,,,0.00,Wunderground v.1.15,2013-09-19 11:28:00,
2013-09-19 07:31:00,65.7,64.8,30.11,SW,217,0.0,1.0,97,0.00,,,0.00,Wunderground v.1.15,2013-09-19 11:31:00,
2013-09-19 07:34:00,65.7,64.8,30.11,SW,217,0.0,1.0,97,0.00,,,0.00,Wunderground v.1.15,2013-09-19 11:34:00,
2013-09-19 07:37:00,65.8,64.9,30.11,SW,217,0.0,0.0,97,0.00,,,0.00,Wunderground v.1.15,2013-09-19 11:37:00,
2013-09-19 07:39:00,65.8,64.9,30.11,SSW,192,0.0,0.0,97,0.00,,,0.00,Wunderground v.1.15,2013-09-19 11:39:00,
2013-09-19 07:40:00,65.8,64.9,30.11,SSW,197,0.0,0.0,97,0.00,,,0.00,Wunderground v.1.15,2013-09-19 11:40:00,
2013-09-19 07:42:00,65.8,64.9,30.11,SSW,197,0.0,0.0,97,0.00,,,0.00,Wunderground v.1.15,2013-09-19 11:42:00,
2013-09-19 07:45:00,65.8,64.9,30.11,SSW,196,0.0,0.0,97,0.00,,,0.00,Wunderground v.1.15,2013-09-19 11:45:00,
2013-09-19 07:46:00,65.9,65.0,30.11,South,188,0.0,0.0,97,0.00,,,0.00,Wunderground v.1.15,2013-09-19 11:46:00,
2013-09-19 07:49:00,65.9,65.0,30.11,WSW,250,0.0,1.0,97,0.00,,,0.00,Wunderground v.1.15,2013-09-19 11:49:00,
2013-09-19 07:50:00,65.9,65.0,30.11,SSW,200,0.0,1.0,97,0.00,,,0.00,Wunderground v.1.15,2013-09-19 11:50:00,
2013-09-19 07:52:00,65.9,65.0,30.11,SW,236,0.0,1.0,97,0.00,,,0.00,Wunderground v.1.15,2013-09-19 11:52:00,
2013-09-19 07:55:00,66.0,65.1,30.11,South,171,0.0,0.0,97,0.00,,,0.00,Wunderground v.1.15,2013-09-19 11:55:00,
2013-09-19 07:56:00,66.0,65.1,30.11,SSE,161,0.0,0.0,97,0.00,,,0.00,Wunderground v.1.15,2013-09-19 11:56:00,
2013-09-19 07:59:00,66.0,65.1,30.11,SW,219,1.0,1.0,97,0.00,,,0.00,Wunderground v.1.15,2013-09-19 11:59:00,
2013-09-19 08:00:00,65.9,65.0,30.12,SSW,213,0.0,1.0,97,0.00,,,0.00,Wunderground v.1.15,2013-09-19 12:00:00,
2013-09-19 08:02:00,65.9,65.0,30.12,SSW,213,0.0,1.0,97,0.00,,,0.00,Wunderground v.1.15,2013-09-19 12:02:00,
2013-09-19 08:03:00,65.9,65.0,30.12,SSW,213,0.0,1.0,97,0.00,,,0.00,Wunderground v.1.15,2013-09-19 12:03:00,
2013-09-19 08:08:00,65.9,65.0,30.11,SSW,212,0.0,0.0,97,0.00,,,0.00,Wunderground v.1.15,2013-09-19 12:08:00,
2013-09-19 08:09:00,65.9,65.0,30.12,SSW,212,0.0,1.0,97,0.00,,,0.00,Wunderground v.1.15,2013-09-19 12:09:00,
2013-09-19 08:11:00,65.9,65.0,30.12,SSW,205,0.0,1.0,97,0.00,,,0.00,Wunderground v.1.15,2013-09-19 12:11:00,
2013-09-19 08:14:00,66.0,65.1,30.11,South,184,0.0,1.0,97,0.00,,,0.00,Wunderground v.1.15,2013-09-19 12:14:00,
2013-09-19 08:16:00,66.0,65.1,30.12,WSW,250,0.0,0.0,97,0.00,,,0.00,Wunderground v.1.15,2013-09-19 12:16:00,
2013-09-19 08:21:00,66.0,65.1,30.12,South,182,0.0,2.0,97,0.00,,,0.00,Wunderground v.1.15,2013-09-19 12:21:00,
2013-09-19 08:22:00,66.1,65.2,30.12,South,183,0.0,2.0,97,0.00,,,0.00,Wunderground v.1.15,2013-09-19 12:22:00,
2013-09-19 08:23:00,66.1,65.2,30.12,South,183,0.0,2.0,97,0.00,,,0.00,Wunderground v.1.15,2013-09-19 12:23:00,
2013-09-19 08:27:00,66.1,65.2,30.12,WSW,254,0.0,0.0,97,0.00,,,0.00,Wunderground v.1.15,2013-09-19 12:27:00,
2013-09-19 08:29:00,66.1,65.2,30.12,WSW,254,0.0,0.0,97,0.00,,,0.00,Wunderground v.1.15,2013-09-19 12:29:00,
2013-09-19 08:33:00,66.2,65.3,30.12,SSW,192,0.0,1.0,97,0.00,,,0.00,Wunderground v.1.15,2013-09-19 12:33:00,
2013-09-19 08:36:00,66.3,65.4,30.12,SSW,192,0.0,0.0,97,0.00,,,0.00,Wunderground v.1.15,2013-09-19 12:36:00,
2013-09-19 08:38:00,66.3,65.4,30.12,West,281,0.0,0.0,97,0.00,,,0.00,Wunderground v.1.15,2013-09-19 12:38:00,
2013-09-19 08:39:00,66.4,65.5,30.12,West,281,0.0,0.0,97,0.00,,,0.00,Wunderground v.1.15,2013-09-19 12:39:00,
2013-09-19 08:42:00,66.5,65.6,30.12,SW,221,0.0,0.0,97,0.00,,,0.00,Wunderground v.1.15,2013-09-19 12:42:00,
2013-09-19 08:44:00,66.5,65.6,30.12,SW,221,0.0,0.0,97,0.00,,,0.00,Wunderground v.1.15,2013-09-19 12:44:00,
2013-09-19 08:45:00,66.5,65.6,30.12,SW,221,0.0,0.0,97,0.00,,,0.00,Wunderground v.1.15,2013-09-19 12:45:00,
2013-09-19 08:47:00,66.6,65.7,30.12,SW,221,0.0,0.0,97,0.00,,,0.00,Wunderground v.1.15,2013-09-19 12:47:00,
2013-09-19 08:49:00,66.7,65.8,30.12,South,180,0.0,3.0,97,0.00,,,0.00,Wunderground v.1.15,2013-09-19 12:49:00,
2013-09-19 08:50:00,66.7,65.8,30.12,WSW,238,0.0,3.0,97,0.00,,,0.00,Wunderground v.1.15,2013-09-19 12:50:00,
2013-09-19 08:52:00,66.7,65.8,30.12,WSW,238,0.0,3.0,97,0.00,,,0.00,Wunderground v.1.15,2013-09-19 12:52:00,
2013-09-19 08:53:00,66.8,65.9,30.12,WSW,238,0.0,3.0,97,0.00,,,0.00,Wunderground v.1.15,2013-09-19 12:53:00,
2013-09-19 08:57:00,66.9,66.0,30.12,SW,214,0.0,2.0,97,0.00,,,0.00,Wunderground v.1.15,2013-09-19 12:57:00,
2013-09-19 09:00:00,67.0,66.1,30.12,SW,222,0.0,2.0,97,0.00,,,0.00,Wunderground v.1.15,2013-09-19 13:00:00,
2013-09-19 09:01:00,67.0,66.1,30.12,SW,221,0.0,2.0,97,0.00,,,0.00,Wunderground v.1.15,2013-09-19 13:01:00,
2013-09-19 09:03:00,67.1,66.2,30.12,WSW,244,1.0,2.0,97,0.00,,,0.00,Wunderground v.1.15,2013-09-19 13:03:00,
2013-09-19 09:05:00,67.2,66.3,30.12,WSW,243,1.0,2.0,97,0.00,,,0.00,Wunderground v.1.15,2013-09-19 13:05:00,
2013-09-19 09:07:00,67.3,66.4,30.12,SSE,152,1.0,3.0,97,0.00,,,0.00,Wunderground v.1.15,2013-09-19 13:07:00,
2013-09-19 09:09:00,67.3,66.4,30.12,South,189,0.0,3.0,97,0.00,,,0.00,Wunderground v.1.15,2013-09-19 13:09:00,
2013-09-19 09:12:00,67.5,66.6,30.12,SSW,196,1.0,3.0,97,0.00,,,0.00,Wunderground v.1.15,2013-09-19 13:12:00,
2013-09-19 09:14:00,67.6,66.7,30.12,SW,235,1.0,3.0,97,0.00,,,0.00,Wunderground v.1.15,2013-09-19 13:14:00,
2013-09-19 09:18:00,67.8,66.9,30.12,SSW,202,1.0,1.0,97,0.00,,,0.00,Wunderground v.1.15,2013-09-19 13:18:00,
2013-09-19 09:21:00,67.9,67.0,30.12,SSW,194,1.0,4.0,97,0.00,,,0.00,Wunderground v.1.15,2013-09-19 13:21:00,
2013-09-19 09:23:00,68.1,67.2,30.12,SSW,207,1.0,4.0,97,0.00,,,0.00,Wunderground v.1.15,2013-09-19 13:23:00,
2013-09-19 09:25:00,68.2,67.3,30.12,WSW,252,1.0,1.0,97,0.00,,,0.00,Wunderground v.1.15,2013-09-19 13:25:00,
2013-09-19 09:27:00,68.2,67.3,30.12,WSW,238,1.0,3.0,97,0.00,,,0.00,Wunderground v.1.15,2013-09-19 13:27:00,
2013-09-19 09:29:00,68.3,67.4,30.12,SSW,192,1.0,3.0,97,0.00,,,0.00,Wunderground v.1.15,2013-09-19 13:29:00,
2013-09-19 09:30:00,68.3,67.4,30.12,NNW,332,1.0,3.0,97,0.00,,,0.00,Wunderground v.1.15,2013-09-19 13:30:00,
2013-09-19 09:33:00,68.4,67.5,30.12,WSW,244,1.0,3.0,97,0.00,,,0.00,Wunderground v.1.15,2013-09-19 13:33:00,
2013-09-19 09:34:00,68.4,67.5,30.12,SE,136,1.0,3.0,97,0.00,,,0.00,Wunderground v.1.15,2013-09-19 13:34:00,
2013-09-19 09:35:00,68.4,67.5,30.12,WSW,246,1.0,1.0,97,0.00,,,0.00,Wunderground v.1.15,2013-09-19 13:35:00,
2013-09-19 09:38:00,68.4,67.5,30.12,SW,221,1.0,6.0,97,0.00,,,0.00,Wunderground v.1.15,2013-09-19 13:38:00,
2013-09-19 09:39:00,68.5,67.6,30.12,WNW,291,1.0,6.0,97,0.00,,,0.00,Wunderground v.1.15,2013-09-19 13:39:00,
2013-09-19 09:41:00,68.5,67.3,30.12,SSW,211,1.0,6.0,96,0.00,,,0.00,Wunderground v.1.15,2013-09-19 13:41:00,
2013-09-19 09:42:00,68.5,67.3,30.12,SSW,204,1.0,6.0,96,0.00,,,0.00,Wunderground v.1.15,2013-09-19 13:42:00,
2013-09-19 09:44:00,68.6,67.4,30.12,South,188,2.0,6.0,96,0.00,,,0.00,Wunderground v.1.15,2013-09-19 13:44:00,
2013-09-19 09:45:00,68.6,67.4,30.12,SSW,202,1.0,7.0,96,0.00,,,0.00,Wunderground v.1.15,2013-09-19 13:45:00,
2013-09-19 09:48:00,68.7,67.5,30.12,SW,229,1.0,7.0,96,0.00,,,0.00,Wunderground v.1.15,2013-09-19 13:48:00,
2013-09-19 09:49:00,68.7,67.5,30.12,SW,235,1.0,7.0,96,0.00,,,0.00,Wunderground v.1.15,2013-09-19 13:49:00,
2013-09-19 09:51:00,68.8,67.3,30.12,West,278,2.0,7.0,95,0.00,,,0.00,Wunderground v.1.15,2013-09-19 13:51:00,
2013-09-19 09:52:00,68.9,67.4,30.13,West,278,2.0,7.0,95,0.00,,,0.00,Wunderground v.1.15,2013-09-19 13:52:00,
2013-09-19 09:55:00,69.0,67.5,30.13,SW,230,1.0,1.0,95,0.00,,,0.00,Wunderground v.1.15,2013-09-19 13:55:00,
2013-09-19 09:56:00,69.1,67.6,30.12,South,184,1.0,1.0,95,0.00,,,0.00,Wunderground v.1.15,2013-09-19 13:56:00,
2013-09-19 09:58:00,69.2,67.7,30.13,West,263,1.0,1.0,95,0.00,,,0.00,Wunderground v.1.15,2013-09-19 13:58:00,
2013-09-19 10:01:00,69.4,67.6,30.13,SSW,213,2.0,3.0,94,0.00,,,0.00,Wunderground v.1.15,2013-09-19 14:01:00,
2013-09-19 10:02:00,69.5,67.7,30.13,West,278,2.0,3.0,94,0.00,,,0.00,Wunderground v.1.15,2013-09-19 14:02:00,
2013-09-19 10:03:00,69.6,67.8,30.13,South,188,2.0,4.0,94,0.00,,,0.00,Wunderground v.1.15,2013-09-19 14:03:00,
2013-09-19 10:04:00,69.7,67.9,30.13,South,184,2.0,4.0,94,0.00,,,0.00,Wunderground v.1.15,2013-09-19 14:04:00,
2013-09-19 10:07:00,70.0,67.9,30.13,SSW,202,2.0,3.0,93,0.00,,,0.00,Wunderground v.1.15,2013-09-19 14:07:00,
2013-09-19 10:08:00,70.2,68.1,30.13,South,190,2.0,3.0,93,0.00,,,0.00,Wunderground v.1.15,2013-09-19 14:08:00,
2013-09-19 10:09:00,70.3,68.2,30.13,SW,227,2.0,3.0,93,0.00,,,0.00,Wunderground v.1.15,2013-09-19 14:09:00,
2013-09-19 10:10:00,70.4,68.3,30.13,South,176,2.0,3.0,93,0.00,,,0.00,Wunderground v.1.15,2013-09-19 14:10:00,
2013-09-19 10:13:00,70.8,68.7,30.13,SSW,193,2.0,3.0,93,0.00,,,0.00,Wunderground v.1.15,2013-09-19 14:13:00,
2013-09-19 10:15:00,71.1,68.7,30.13,SW,222,1.0,1.0,92,0.00,,,0.00,Wunderground v.1.15,2013-09-19 14:15:00,
2013-09-19 10:18:00,71.4,68.6,30.13,NW,316,2.0,3.0,91,0.00,,,0.00,Wunderground v.1.15,2013-09-19 14:18:00,
2013-09-19 10:20:00,71.5,68.4,30.13,SSW,197,2.0,3.0,90,0.00,,,0.00,Wunderground v.1.15,2013-09-19 14:20:00,
2013-09-19 10:21:00,71.7,68.6,30.13,NW,306,2.0,3.0,90,0.00,,,0.00,Wunderground v.1.15,2013-09-19 14:21:00,
2013-09-19 10:24:00,71.9,68.8,30.12,NW,310,2.0,3.0,90,0.00,,,0.00,Wunderground v.1.15,2013-09-19 14:24:00,
2013-09-19 10:26:00,72.0,68.6,30.13,SE,140,2.0,2.0,89,0.00,,,0.00,Wunderground v.1.15,2013-09-19 14:26:00,
2013-09-19 10:27:00,72.1,68.7,30.13,West,261,2.0,2.0,89,0.00,,,0.00,Wunderground v.1.15,2013-09-19 14:27:00,
2013-09-19 10:31:00,72.5,68.7,30.12,SW,214,2.0,3.0,88,0.00,,,0.00,Wunderground v.1.15,2013-09-19 14:31:00,
2013-09-19 10:33:00,72.6,68.5,30.13,WSW,255,2.0,3.0,87,0.00,,,0.00,Wunderground v.1.15,2013-09-19 14:33:00,
2013-09-19 10:34:00,72.7,68.9,30.12,SW,217,2.0,3.0,88,0.00,,,0.00,Wunderground v.1.15,2013-09-19 14:34:00,
2013-09-19 10:36:00,72.8,69.0,30.12,ENE,67,2.0,2.0,88,0.00,,,0.00,Wunderground v.1.15,2013-09-19 14:36:00,
2013-09-19 10:39:00,72.9,68.8,30.13,SSE,153,2.0,2.0,87,0.00,,,0.00,Wunderground v.1.15,2013-09-19 14:39:00,
2013-09-19 10:42:00,73.1,69.0,30.13,WSW,241,2.0,4.0,87,0.00,,,0.00,Wunderground v.1.15,2013-09-19 14:42:00,
2013-09-19 10:43:00,73.1,69.0,30.13,NW,325,2.0,4.0,87,0.00,,,0.00,Wunderground v.1.15,2013-09-19 14:43:00,
2013-09-19 10:45:00,73.2,69.1,30.13,SSW,198,2.0,4.0,87,0.00,,,0.00,Wunderground v.1.15,2013-09-19 14:45:00,
2013-09-19 10:48:00,73.3,69.2,30.13,WSW,248,2.0,4.0,87,0.00,,,0.00,Wunderground v.1.15,2013-09-19 14:48:00,
2013-09-19 10:50:00,73.4,69.0,30.13,WSW,258,2.0,4.0,86,0.00,,,0.00,Wunderground v.1.15,2013-09-19 14:50:00,
2013-09-19 10:52:00,73.4,69.3,30.13,SW,220,2.0,4.0,87,0.00,,,0.00,Wunderground v.1.15,2013-09-19 14:52:00,
2013-09-19 10:56:00,73.3,68.9,30.13,South,184,2.0,3.0,86,0.00,,,0.00,Wunderground v.1.15,2013-09-19 14:56:00,
2013-09-19 10:57:00,73.3,68.9,30.13,South,184,1.0,3.0,86,0.00,,,0.00,Wunderground v.1.15,2013-09-19 14:57:00,
2013-09-19 10:58:00,73.3,68.9,30.13,South,184,1.0,3.0,86,0.00,,,0.00,Wunderground v.1.15,2013-09-19 14:58:00,
2013-09-19 11:02:00,73.4,69.3,30.13,WSW,247,1.0,3.0,87,0.00,,,0.00,Wunderground v.1.15,2013-09-19 15:02:00,
2013-09-19 11:04:00,73.4,69.3,30.14,WSW,252,1.0,3.0,87,0.00,,,0.00,Wunderground v.1.15,2013-09-19 15:04:00,
2013-09-19 11:05:00,73.4,69.3,30.14,SSW,198,0.0,2.0,87,0.00,,,0.00,Wunderground v.1.15,2013-09-19 15:05:00,
2013-09-19 11:07:00,73.5,69.4,30.14,SSE,154,0.0,2.0,87,0.00,,,0.00,Wunderground v.1.15,2013-09-19 15:07:00,
2013-09-19 11:11:00,73.5,69.1,30.14,South,184,1.0,4.0,86,0.00,,,0.00,Wunderground v.1.15,2013-09-19 15:11:00,
2013-09-19 11:13:00,73.6,69.2,30.14,South,184,0.0,4.0,86,0.00,,,0.00,Wunderground v.1.15,2013-09-19 15:13:00,
2013-09-19 11:15:00,73.6,69.2,30.14,South,184,0.0,0.0,86,0.00,,,0.00,Wunderground v.1.15,2013-09-19 15:15:00,
2013-09-19 11:16:00,73.7,69.2,30.14,South,184,0.0,0.0,86,0.00,,,0.00,Wunderground v.1.15,2013-09-19 15:16:00,
2013-09-19 11:18:00,73.7,69.2,30.14,South,184,0.0,0.0,86,0.00,,,0.00,Wunderground v.1.15,2013-09-19 15:18:00,
2013-09-19 11:21:00,73.7,69.2,30.14,South,184,0.0,0.0,86,0.00,,,0.00,Wunderground v.1.15,2013-09-19 15:21:00,
2013-09-19 11:23:00,73.6,68.8,30.15,South,184,0.0,0.0,85,0.00,,,0.00,Wunderground v.1.15,2013-09-19 15:23:00,
2013-09-19 11:24:00,73.6,69.2,30.15,South,184,0.0,0.0,86,0.00,,,0.00,Wunderground v.1.15,2013-09-19 15:24:00,
2013-09-19 11:27:00,73.6,68.8,30.15,South,184,0.0,0.0,85,0.00,,,0.00,Wunderground v.1.15,2013-09-19 15:27:00,
2013-09-19 11:28:00,73.6,69.2,30.15,South,184,0.0,0.0,86,0.00,,,0.00,Wunderground v.1.15,2013-09-19 15:28:00,
2013-09-19 11:29:00,73.6,69.2,30.15,South,184,0.0,0.0,86,0.00,,,0.00,Wunderground v.1.15,2013-09-19 15:29:00,
2013-09-19 11:32:00,73.6,69.5,30.15,South,184,0.0,0.0,87,0.00,,,0.00,Wunderground v.1.15,2013-09-19 15:32:00,
2013-09-19 11:34:00,73.5,69.1,30.15,South,184,0.0,0.0,86,0.00,,,0.00,Wunderground v.1.15,2013-09-19 15:34:00,
2013-09-19 11:38:00,73.5,69.4,30.15,South,184,0.0,0.0,87,0.00,,,0.00,Wunderground v.1.15,2013-09-19 15:38:00,
2013-09-19 11:39:00,73.6,69.5,30.15,South,184,0.0,0.0,87,0.00,,,0.00,Wunderground v.1.15,2013-09-19 15:39:00,
2013-09-19 11:41:00,73.6,69.5,30.15,South,184,0.0,0.0,87,0.00,,,0.00,Wunderground v.1.15,2013-09-19 15:41:00,
2013-09-19 11:44:00,73.7,69.9,30.15,South,184,0.0,0.0,88,0.00,,,0.00,Wunderground v.1.15,2013-09-19 15:44:00,
2013-09-19 11:45:00,73.7,69.9,30.15,South,184,0.0,0.0,88,0.00,,,0.00,Wunderground v.1.15,2013-09-19 15:45:00,
2013-09-19 11:47:00,73.7,69.9,30.15,South,184,0.0,0.0,88,0.00,,,0.00,Wunderground v.1.15,2013-09-19 15:47:00,
2013-09-19 11:48:00,73.7,69.9,30.15,South,184,0.0,0.0,88,0.00,,,0.00,Wunderground v.1.15,2013-09-19 15:48:00,
2013-09-19 11:50:00,73.7,69.9,30.15,South,184,0.0,0.0,88,0.00,,,0.00,Wunderground v.1.15,2013-09-19 15:50:00,
2013-09-19 11:51:00,73.7,69.9,30.14,South,184,0.0,0.0,88,0.00,,,0.00,Wunderground v.1.15,2013-09-19 15:51:00,
2013-09-19 11:53:00,73.6,69.8,30.15,South,184,0.0,0.0,88,0.00,,,0.00,Wunderground v.1.15,2013-09-19 15:53:00,
2013-09-19 11:57:00,73.6,69.8,30.14,South,184,0.0,0.0,88,0.00,,,0.00,Wunderground v.1.15,2013-09-19 15:57:00,
2013-09-19 11:59:00,73.7,69.6,30.14,South,184,0.0,0.0,87,0.00,,,0.00,Wunderground v.1.15,2013-09-19 15:59:00,
2013-09-19 12:00:00,73.6,69.5,30.15,South,184,0.0,0.0,87,0.00,,,0.00,Wunderground v.1.15,2013-09-19 16:00:00,
2013-09-19 12:02:00,73.6,69.5,30.15,South,184,0.0,0.0,87,0.00,,,0.00,Wunderground v.1.15,2013-09-19 16:02:00,
2013-09-19 12:04:00,73.6,69.5,30.15,South,184,0.0,0.0,87,0.00,,,0.00,Wunderground v.1.15,2013-09-19 16:04:00,
2013-09-19 12:06:00,73.6,69.5,30.14,South,184,0.0,0.0,87,0.00,,,0.00,Wunderground v.1.15,2013-09-19 16:06:00,
2013-09-19 12:07:00,73.6,69.5,30.14,South,184,0.0,0.0,87,0.00,,,0.00,Wunderground v.1.15,2013-09-19 16:07:00,
2013-09-19 12:09:00,73.6,69.5,30.14,South,184,0.0,0.0,87,0.00,,,0.00,Wunderground v.1.15,2013-09-19 16:09:00,
2013-09-19 12:11:00,73.6,69.8,30.14,South,184,0.0,0.0,88,0.00,,,0.00,Wunderground v.1.15,2013-09-19 16:11:00,
2013-09-19 12:12:00,73.6,69.8,30.14,South,184,0.0,0.0,88,0.00,,,0.00,Wunderground v.1.15,2013-09-19 16:12:00,
2013-09-19 12:14:00,73.6,69.8,30.14,South,184,0.0,0.0,88,0.00,,,0.00,Wunderground v.1.15,2013-09-19 16:14:00,
2013-09-19 12:17:00,73.5,69.7,30.14,South,184,0.0,0.0,88,0.00,,,0.00,Wunderground v.1.15,2013-09-19 16:17:00,
2013-09-19 12:19:00,73.5,69.7,30.14,South,184,0.0,0.0,88,0.00,,,0.00,Wunderground v.1.15,2013-09-19 16:19:00,
2013-09-19 12:20:00,73.5,69.7,30.14,South,184,0.0,0.0,88,0.00,,,0.00,Wunderground v.1.15,2013-09-19 16:20:00,
2013-09-19 12:22:00,73.5,69.7,30.14,South,184,0.0,0.0,88,0.00,,,0.00,Wunderground v.1.15,2013-09-19 16:22:00,
2013-09-19 12:23:00,73.5,69.7,30.14,South,184,0.0,0.0,88,0.00,,,0.00,Wunderground v.1.15,2013-09-19 16:23:00,
2013-09-19 12:25:00,73.5,69.7,30.14,South,184,0.0,0.0,88,0.00,,,0.00,Wunderground v.1.15,2013-09-19 16:25:00,
2013-09-19 12:28:00,73.4,69.6,30.14,South,184,0.0,0.0,88,0.00,,,0.00,Wunderground v.1.15,2013-09-19 16:28:00,
2013-09-19 12:29:00,73.4,69.6,30.14,South,184,0.0,0.0,88,0.00,,,0.00,Wunderground v.1.15,2013-09-19 16:29:00,
2013-09-19 12:33:00,73.4,69.6,30.13,South,184,0.0,0.0,88,0.00,,,0.00,Wunderground v.1.15,2013-09-19 16:33:00,
2013-09-19 12:35:00,73.4,69.6,30.14,South,184,0.0,0.0,88,0.00,,,0.00,Wunderground v.1.15,2013-09-19 16:35:00,
2013-09-19 12:38:00,73.4,69.3,30.13,South,184,0.0,1.0,87,0.00,,,0.00,Wunderground v.1.15,2013-09-19 16:38:00,
2013-09-19 12:40:00,73.3,69.2,30.13,South,184,0.0,1.0,87,0.00,,,0.00,Wunderground v.1.15,2013-09-19 16:40:00,
2013-09-19 12:41:00,73.3,69.5,30.14,South,184,0.0,1.0,88,0.00,,,0.00,Wunderground v.1.15,2013-09-19 16:41:00,
2013-09-19 12:43:00,73.1,69.0,30.14,South,184,0.0,1.0,87,0.00,,,0.00,Wunderground v.1.15,2013-09-19 16:43:00,
2013-09-19 12:45:00,73.1,69.0,30.14,South,184,0.0,0.0,87,0.00,,,0.00,Wunderground v.1.15,2013-09-19 16:45:00,
2013-09-19 12:47:00,73.0,68.9,30.14,South,184,0.0,0.0,87,0.00,,,0.00,Wunderground v.1.15,2013-09-19 16:47:00,
2013-09-19 12:51:00,73.0,69.2,30.14,South,184,0.0,0.0,88,0.00,,,0.00,Wunderground v.1.15,2013-09-19 16:51:00,
2013-09-19 12:52:00,73.1,69.3,30.14,South,184,0.0,0.0,88,0.00,,,0.00,Wunderground v.1.15,2013-09-19 16:52:00,
2013-09-19 12:54:00,73.1,69.3,30.14,South,184,0.0,0.0,88,0.00,,,0.00,Wunderground v.1.15,2013-09-19 16:54:00,
2013-09-19 12:56:00,73.1,69.3,30.14,South,184,0.0,0.0,88,0.00,,,0.00,Wunderground v.1.15,2013-09-19 16:56:00,
2013-09-19 12:57:00,73.1,69.3,30.14,South,184,0.0,0.0,88,0.00,,,0.00,Wunderground v.1.15,2013-09-19 16:57:00,
2013-09-19 12:58:00,73.1,69.3,30.14,South,184,0.0,0.0,88,0.00,,,0.00,Wunderground v.1.15,2013-09-19 16:58:00,
2013-09-19 13:02:00,73.2,69.8,30.13,South,184,0.0,0.0,89,0.00,,,0.00,Wunderground v.1.15,2013-09-19 17:02:00,
2013-09-19 13:03:00,73.3,69.9,30.13,West,261,0.0,1.0,89,0.00,,,0.00,Wunderground v.1.15,2013-09-19 17:03:00,
2013-09-19 13:04:00,73.3,69.9,30.14,West,261,0.0,1.0,89,0.00,,,0.00,Wunderground v.1.15,2013-09-19 17:04:00,
2013-09-19 13:06:00,73.3,69.5,30.14,West,261,0.0,0.0,88,0.00,,,0.00,Wunderground v.1.15,2013-09-19 17:06:00,
2013-09-19 13:07:00,73.3,69.5,30.14,West,261,0.0,0.0,88,0.00,,,0.00,Wunderground v.1.15,2013-09-19 17:07:00,
2013-09-19 13:08:00,71.1,67.7,30.02,SSW,201,0.0,0.0,89,0.00,,,0.00,Wunderground v.1.15,2013-09-19 17:08:00,
2013-09-19 13:09:00,71.1,67.7,30.02,SSW,201,0.0,0.0,89,0.00,,,0.00,Wunderground v.1.15,2013-09-19 17:09:00,
2013-09-19 13:10:00,73.3,69.5,30.13,West,261,0.0,0.0,88,0.00,,,0.00,Wunderground v.1.15,2013-09-19 17:10:00,
2013-09-19 13:11:00,71.1,67.7,30.02,SSW,201,0.0,0.0,89,0.00,,,0.00,Wunderground v.1.15,2013-09-19 17:11:00,
2013-09-19 13:12:00,73.3,69.5,30.13,West,261,0.0,0.0,88,0.00,,,0.00,Wunderground v.1.15,2013-09-19 17:12:00,
2013-09-19 13:13:00,71.1,67.7,30.02,SSW,198,0.0,1.0,89,0.00,,,0.00,Wunderground v.1.15,2013-09-19 17:13:00,
2013-09-19 13:14:00,71.1,67.7,30.03,SSW,198,0.0,1.0,89,0.00,,,0.00,Wunderground v.1.15,2013-09-19 17:14:00,
2013-09-19 13:15:00,71.1,67.7,30.03,SSW,198,0.0,1.0,89,0.00,,,0.00,Wunderground v.1.15,2013-09-19 17:15:00,
2013-09-19 13:16:00,71.1,67.7,30.03,SSW,198,0.0,1.0,89,0.00,,,0.00,Wunderground v.1.15,2013-09-19 17:16:00,
2013-09-19 13:17:00,73.5,69.7,30.13,West,261,0.0,1.0,88,0.00,,,0.00,Wunderground v.1.15,2013-09-19 17:17:00,
2013-09-19 13:18:00,73.6,69.8,30.13,West,261,0.0,1.0,88,0.00,,,0.00,Wunderground v.1.15,2013-09-19 17:18:00,
2013-09-19 13:19:00,73.7,69.9,30.13,West,261,0.0,1.0,88,0.00,,,0.00,Wunderground v.1.15,2013-09-19 17:19:00,
2013-09-19 13:20:00,73.7,69.6,30.13,West,261,0.0,1.0,87,0.00,,,0.00,Wunderground v.1.15,2013-09-19 17:20:00,
2013-09-19 13:21:00,71.0,67.6,30.02,SSW,198,0.0,0.0,89,0.00,,,0.00,Wunderground v.1.15,2013-09-19 17:21:00,
2013-09-19 13:22:00,71.0,67.3,30.02,SSW,198,0.0,0.0,88,0.00,,,0.00,Wunderground v.1.15,2013-09-19 17:22:00,
2013-09-19 13:23:00,71.0,67.3,30.02,SSW,198,0.0,0.0,88,0.00,,,0.00,Wunderground v.1.15,2013-09-19 17:23:00,
2013-09-19 13:24:00,74.0,69.9,30.13,West,261,0.0,1.0,87,0.00,,,0.00,Wunderground v.1.15,2013-09-19 17:24:00,
2013-09-19 13:25:00,74.1,69.6,30.13,West,261,0.0,0.0,86,0.00,,,0.00,Wunderground v.1.15,2013-09-19 17:25:00,
2013-09-19 13:26:00,71.1,67.4,30.02,SSW,198,0.0,0.0,88,0.00,,,0.00,Wunderground v.1.15,2013-09-19 17:26:00,
2013-09-19 13:27:00,74.2,69.7,30.13,West,261,0.0,0.0,86,0.00,,,0.00,Wunderground v.1.15,2013-09-19 17:27:00,
2013-09-19 13:28:00,74.2,69.7,30.12,West,261,0.0,0.0,86,0.00,,,0.00,Wunderground v.1.15,2013-09-19 17:28:00,
2013-09-19 13:29:00,74.3,69.8,30.13,West,261,0.0,0.0,86,0.00,,,0.00,Wunderground v.1.15,2013-09-19 17:29:00,
2013-09-19 13:30:00,71.1,67.4,30.02,SSW,198,0.0,0.0,88,0.00,,,0.00,Wunderground v.1.15,2013-09-19 17:30:00,
2013-09-19 13:31:00,71.0,67.3,30.02,SSW,198,0.0,0.0,88,0.00,,,0.00,Wunderground v.1.15,2013-09-19 17:31:00,
2013-09-19 13:32:00,74.4,69.6,30.12,West,261,0.0,0.0,85,0.00,,,0.00,Wunderground v.1.15,2013-09-19 17:32:00,
2013-09-19 13:33:00,71.0,67.3,30.02,SSW,198,0.0,0.0,88,0.00,,,0.00,Wunderground v.1.15,2013-09-19 17:33:00,
2013-09-19 13:34:00,71.0,67.3,30.02,SSW,198,0.0,0.0,88,0.00,,,0.00,Wunderground v.1.15,2013-09-19 17:34:00,
2013-09-19 13:35:00,74.6,70.1,30.12,West,261,0.0,0.0,86,0.00,,,0.00,Wunderground v.1.15,2013-09-19 17:35:00,
2013-09-19 13:36:00,71.0,67.3,30.02,SSW,198,0.0,0.0,88,0.00,,,0.00,Wunderground v.1.15,2013-09-19 17:36:00,
2013-09-19 13:37:00,74.7,70.2,30.12,North,5,0.0,1.0,86,0.00,,,0.00,Wunderground v.1.15,2013-09-19 17:37:00,
2013-09-19 13:38:00,74.9,70.4,30.12,North,5,0.0,1.0,86,0.00,,,0.00,Wunderground v.1.15,2013-09-19 17:38:00,
2013-09-19 13:39:00,71.0,67.3,30.02,SSW,198,0.0,0.0,88,0.00,,,0.00,Wunderground v.1.15,2013-09-19 17:39:00,
2013-09-19 13:40:00,75.0,70.5,30.12,North,5,0.0,1.0,86,0.00,,,0.00,Wunderground v.1.15,2013-09-19 17:40:00,
2013-09-19 13:41:00,70.9,67.2,30.02,SSW,198,0.0,0.0,88,0.00,,,0.00,Wunderground v.1.15,2013-09-19 17:41:00,
2013-09-19 13:42:00,75.4,70.6,30.12,North,5,0.0,1.0,85,0.00,,,0.00,Wunderground v.1.15,2013-09-19 17:42:00,
2013-09-19 13:43:00,70.9,67.5,30.02,SSW,198,0.0,0.0,89,0.00,,,0.00,Wunderground v.1.15,2013-09-19 17:43:00,
2013-09-19 13:44:00,70.9,67.5,30.02,SSW,198,0.0,0.0,89,0.00,,,0.00,Wunderground v.1.15,2013-09-19 17:44:00,
2013-09-19 13:45:00,76.1,70.9,30.12,NE,54,0.0,0.0,84,0.00,,,0.00,Wunderground v.1.15,2013-09-19 17:45:00,
2013-09-19 13:46:00,76.3,70.8,30.12,NE,54,0.0,0.0,83,0.00,,,0.00,Wunderground v.1.15,2013-09-19 17:46:00,
2013-09-19 13:47:00,76.5,70.9,30.12,NE,50,0.0,2.0,83,0.00,,,0.00,Wunderground v.1.15,2013-09-19 17:47:00,
2013-09-19 13:48:00,70.8,67.4,30.02,SSW,207,0.0,3.0,89,0.00,,,0.00,Wunderground v.1.15,2013-09-19 17:48:00,
2013-09-19 13:49:00,70.8,67.4,30.02,SE,144,0.0,3.0,89,0.00,,,0.00,Wunderground v.1.15,2013-09-19 17:49:00,
2013-09-19 13:50:00,70.8,67.4,30.02,SE,144,0.0,0.0,89,0.00,,,0.00,Wunderground v.1.15,2013-09-19 17:50:00,
2013-09-19 13:51:00,70.8,67.4,30.02,SE,143,0.0,0.0,89,0.00,,,0.00,Wunderground v.1.15,2013-09-19 17:51:00,
2013-09-19 13:52:00,77.6,71.7,30.12,NE,49,0.0,2.0,82,0.00,,,0.00,Wunderground v.1.15,2013-09-19 17:52:00,
2013-09-19 13:53:00,77.9,72.0,30.11,NE,49,0.0,2.0,82,0.00,,,0.00,Wunderground v.1.15,2013-09-19 17:53:00,
2013-09-19 13:54:00,78.2,71.9,30.11,NE,49,0.0,4.0,81,0.00,,,0.00,Wunderground v.1.15,2013-09-19 17:54:00,
2013-09-19 13:55:00,70.8,67.4,30.02,WSW,257,0.0,1.0,89,0.00,,,0.00,Wunderground v.1.15,2013-09-19 17:55:00,
2013-09-19 13:56:00,78.5,71.4,30.11,NE,51,0.0,0.0,79,0.00,,,0.00,Wunderground v.1.15,2013-09-19 17:56:00,
2013-09-19 13:57:00,70.8,67.4,30.02,WSW,257,0.0,1.0,89,0.00,,,0.00,Wunderground v.1.15,2013-09-19 17:57:00,
2013-09-19 13:58:00,78.7,72.0,30.11,NE,51,0.0,0.0,80,0.00,,,0.00,Wunderground v.1.15,2013-09-19 17:58:00,
2013-09-19 13:59:00,78.8,72.1,30.11,NE,51,0.0,0.0,80,0.00,,,0.00,Wunderground v.1.15,2013-09-19 17:59:00,
2013-09-19 14:00:00,70.8,67.4,30.02,South,177,0.0,2.0,89,0.00,,,0.00,Wunderground v.1.15,2013-09-19 18:00:00,
2013-09-19 14:01:00,70.8,67.4,30.02,South,177,0.0,2.0,89,0.00,,,0.00,Wunderground v.1.15,2013-09-19 18:01:00,
2013-09-19 14:02:00,79.2,72.1,30.11,North,11,0.0,1.0,79,0.00,,,0.00,Wunderground v.1.15,2013-09-19 18:02:00,
2013-09-19 14:03:00,70.7,67.3,30.02,South,177,0.0,2.0,89,0.00,,,0.00,Wunderground v.1.15,2013-09-19 18:03:00,
2013-09-19 14:04:00,79.4,71.9,30.11,North,11,0.0,1.0,78,0.00,,,0.00,Wunderground v.1.15,2013-09-19 18:04:00,
2013-09-19 14:05:00,79.6,72.5,30.11,NE,41,0.0,0.0,79,0.00,,,0.00,Wunderground v.1.15,2013-09-19 18:05:00,
2013-09-19 14:06:00,70.7,67.3,30.02,South,177,0.0,2.0,89,0.00,,,0.00,Wunderground v.1.15,2013-09-19 18:06:00,
2013-09-19 14:07:00,70.8,67.4,30.02,South,177,0.0,2.0,89,0.00,,,0.00,Wunderground v.1.15,2013-09-19 18:07:00,
2013-09-19 14:08:00,80.0,72.5,30.11,South,170,0.0,0.0,78,0.00,,,0.00,Wunderground v.1.15,2013-09-19 18:08:00,
2013-09-19 14:09:00,80.1,72.6,30.11,South,170,0.0,0.0,78,0.00,,,0.00,Wunderground v.1.15,2013-09-19 18:09:00,
2013-09-19 14:10:00,80.2,71.9,30.11,South,171,0.0,0.0,76,0.00,,,0.00,Wunderground v.1.15,2013-09-19 18:10:00,
2013-09-19 14:11:00,70.7,67.3,30.02,SE,140,0.0,0.0,89,0.00,,,0.00,Wunderground v.1.15,2013-09-19 18:11:00,
2013-09-19 14:12:00,80.4,72.1,30.10,South,171,0.0,1.0,76,0.00,,,0.00,Wunderground v.1.15,2013-09-19 18:12:00,
2013-09-19 14:13:00,80.5,71.8,30.11,SSW,201,0.0,1.0,75,0.00,,,0.00,Wunderground v.1.15,2013-09-19 18:13:00,
2013-09-19 14:14:00,70.7,67.3,30.02,SE,140,0.0,0.0,89,0.00,,,0.00,Wunderground v.1.15,2013-09-19 18:14:00,
2013-09-19 14:15:00,70.7,67.3,30.02,SE,140,0.0,0.0,89,0.00,,,0.00,Wunderground v.1.15,2013-09-19 18:15:00,
2013-09-19 14:16:00,80.8,72.5,30.11,SSW,201,0.0,1.0,76,0.00,,,0.00,Wunderground v.1.15,2013-09-19 18:16:00,
2013-09-19 14:18:00,80.9,72.2,30.11,SSW,198,0.0,1.0,75,0.00,,,0.00,Wunderground v.1.15,2013-09-19 18:18:00,
2013-09-19 14:19:00,80.9,72.2,30.10,SSW,198,0.0,1.0,75,0.00,,,0.00,Wunderground v.1.15,2013-09-19 18:19:00,
2013-09-19 14:20:00,81.1,72.4,30.10,SSW,198,0.0,1.0,75,0.00,,,0.00,Wunderground v.1.15,2013-09-19 18:20:00,
2013-09-19 14:21:00,70.6,67.2,30.02,SE,140,0.0,0.0,89,0.00,,,0.00,Wunderground v.1.15,2013-09-19 18:21:00,
2013-09-19 14:22:00,81.2,72.5,30.10,SSW,197,0.0,1.0,75,0.00,,,0.00,Wunderground v.1.15,2013-09-19 18:22:00,
2013-09-19 14:23:00,70.6,67.2,30.02,SE,140,0.0,0.0,89,0.00,,,0.00,Wunderground v.1.15,2013-09-19 18:23:00,
2013-09-19 14:24:00,81.4,72.3,30.10,East,89,0.0,1.0,74,0.00,,,0.00,Wunderground v.1.15,2013-09-19 18:24:00,
2013-09-19 14:25:00,81.4,72.3,30.10,East,89,0.0,0.0,74,0.00,,,0.00,Wunderground v.1.15,2013-09-19 18:25:00,
2013-09-19 14:26:00,81.4,72.3,30.10,East,92,0.0,1.0,74,0.00,,,0.00,Wunderground v.1.15,2013-09-19 18:26:00,
2013-09-19 14:27:00,81.4,72.3,30.10,East,92,0.0,1.0,74,0.00,,,0.00,Wunderground v.1.15,2013-09-19 18:27:00,
2013-09-19 14:28:00,70.4,67.0,30.02,SE,140,0.0,0.0,89,0.00,,,0.00,Wunderground v.1.15,2013-09-19 18:28:00,
2013-09-19 14:29:00,70.4,67.0,30.02,SE,140,0.0,0.0,89,0.00,,,0.00,Wunderground v.1.15,2013-09-19 18:29:00,
2013-09-19 14:30:00,81.4,72.3,30.09,SW,216,0.0,3.0,74,0.00,,,0.00,Wunderground v.1.15,2013-09-19 18:30:00,
2013-09-19 14:31:00,81.3,71.8,30.09,SW,219,1.0,3.0,73,0.00,,,0.00,Wunderground v.1.15,2013-09-19 18:31:00,
2013-09-19 14:32:00,70.4,67.0,30.01,SE,140,0.0,0.0,89,0.00,,,0.00,Wunderground v.1.15,2013-09-19 18:32:00,
2013-09-19 14:33:00,81.3,72.2,30.09,SW,219,1.0,3.0,74,0.00,,,0.00,Wunderground v.1.15,2013-09-19 18:33:00,
2013-09-19 14:34:00,70.3,66.9,30.01,SE,140,0.0,0.0,89,0.00,,,0.00,Wunderground v.1.15,2013-09-19 18:34:00,
2013-09-19 14:35:00,70.3,66.9,30.01,SE,140,0.0,0.0,89,0.00,,,0.00,Wunderground v.1.15,2013-09-19 18:35:00,
2013-09-19 14:37:00,70.3,66.9,30.01,SW,227,0.0,1.0,89,0.00,,,0.00,Wunderground v.1.15,2013-09-19 18:37:00,
2013-09-19 14:38:00,81.2,72.5,30.09,SW,219,1.0,1.0,75,0.00,,,0.00,Wunderground v.1.15,2013-09-19 18:38:00,
2013-09-19 14:39:00,70.3,66.9,30.01,WSW,255,0.0,1.0,89,0.00,,,0.00,Wunderground v.1.15,2013-09-19 18:39:00,
2013-09-19 14:40:00,81.3,72.6,30.09,SW,219,0.0,1.0,75,0.00,,,0.00,Wunderground v.1.15,2013-09-19 18:40:00,
2013-09-19 14:41:00,81.4,72.7,30.09,SW,219,0.0,1.0,75,0.00,,,0.00,Wunderground v.1.15,2013-09-19 18:41:00,
2013-09-19 14:44:00,81.7,72.2,30.09,SSW,195,0.0,1.0,73,0.00,,,0.00,Wunderground v.1.15,2013-09-19 18:44:00,
2013-09-19 14:45:00,70.2,67.1,30.01,WSW,255,0.0,0.0,90,0.00,,,0.00,Wunderground v.1.15,2013-09-19 18:45:00,
2013-09-19 14:46:00,81.9,72.8,30.09,SSW,195,0.0,0.0,74,0.00,,,0.00,Wunderground v.1.15,2013-09-19 18:46:00,
2013-09-19 14:47:00,82.1,73.0,30.08,SSW,194,0.0,2.0,74,0.00,,,0.00,Wunderground v.1.15,2013-09-19 18:47:00,
2013-09-19 14:49:00,82.3,73.2,30.09,SSW,208,0.0,4.0,74,0.00,,,0.00,Wunderground v.1.15,2013-09-19 18:49:00,
2013-09-19 14:50:00,82.2,72.3,30.08,SSW,208,0.0,4.0,72,0.00,,,0.00,Wunderground v.1.15,2013-09-19 18:50:00,
2013-09-19 14:51:00,70.0,66.9,30.02,WSW,255,0.0,0.0,90,0.00,,,0.00,Wunderground v.1.15,2013-09-19 18:51:00,
2013-09-19 14:52:00,82.0,72.5,30.08,SSW,208,0.0,4.0,73,0.00,,,0.00,Wunderground v.1.15,2013-09-19 18:52:00,
2013-09-19 14:53:00,82.0,72.9,30.08,WSW,239,1.0,4.0,74,0.00,,,0.00,Wunderground v.1.15,2013-09-19 18:53:00,
2013-09-19 14:54:00,82.0,73.3,30.08,SSW,198,1.0,4.0,75,0.00,,,0.00,Wunderground v.1.15,2013-09-19 18:54:00,
2013-09-19 14:55:00,82.0,73.3,30.08,SW,233,1.0,1.0,75,0.00,,,0.00,Wunderground v.1.15,2013-09-19 18:55:00,
2013-09-19 14:59:00,82.4,72.0,30.08,SSW,203,1.0,3.0,71,0.00,,,0.00,Wunderground v.1.15,2013-09-19 18:59:00,
2013-09-19 15:00:00,82.6,72.2,30.08,SSW,203,0.0,3.0,71,0.00,,,0.00,Wunderground v.1.15,2013-09-19 19:00:00,
2013-09-19 15:02:00,82.9,72.5,30.08,SSW,203,0.0,3.0,71,0.00,,,0.00,Wunderground v.1.15,2013-09-19 19:02:00,
2013-09-19 15:05:00,69.6,66.5,30.02,WSW,255,0.0,0.0,90,0.00,,,0.00,Wunderground v.1.15,2013-09-19 19:05:00,
2013-09-19 15:07:00,83.0,73.0,30.07,SSW,192,0.0,3.0,72,0.00,,,0.00,Wunderground v.1.15,2013-09-19 19:07:00,
2013-09-19 15:08:00,83.0,73.0,30.08,SSW,194,1.0,3.0,72,0.00,,,0.00,Wunderground v.1.15,2013-09-19 19:08:00,
2013-09-19 15:09:00,83.0,72.6,30.07,SSW,194,1.0,3.0,71,0.00,,,0.00,Wunderground v.1.15,2013-09-19 19:09:00,
2013-09-19 15:10:00,83.0,72.6,30.07,SSE,168,1.0,3.0,71,0.00,,,0.00,Wunderground v.1.15,2013-09-19 19:10:00,
2013-09-19 15:12:00,83.0,73.4,30.07,SSW,211,1.0,4.0,73,0.00,,,0.00,Wunderground v.1.15,2013-09-19 19:12:00,
2013-09-19 15:13:00,83.0,72.2,30.07,SSW,211,1.0,4.0,70,0.00,,,0.00,Wunderground v.1.15,2013-09-19 19:13:00,
2013-09-19 15:15:00,82.9,72.5,30.07,SW,216,1.0,1.0,71,0.00,,,0.00,Wunderground v.1.15,2013-09-19 19:15:00,
2013-09-19 15:17:00,69.4,66.7,30.02,WSW,255,0.0,0.0,91,0.00,,,0.00,Wunderground v.1.15,2013-09-19 19:17:00,
2013-09-19 15:18:00,82.8,72.4,30.07,SW,216,1.0,1.0,71,0.00,,,0.00,Wunderground v.1.15,2013-09-19 19:18:00,
2013-09-19 15:20:00,82.9,72.9,30.07,WSW,249,1.0,1.0,72,0.00,,,0.00,Wunderground v.1.15,2013-09-19 19:20:00,
2013-09-19 15:21:00,82.9,73.4,30.07,SSW,204,0.0,4.0,73,0.00,,,0.00,Wunderground v.1.15,2013-09-19 19:21:00,
2013-09-19 15:22:00,82.9,72.5,30.07,South,172,1.0,4.0,71,0.00,,,0.00,Wunderground v.1.15,2013-09-19 19:22:00,
2013-09-19 15:25:00,82.8,72.8,30.07,SSW,192,1.0,4.0,72,0.00,,,0.00,Wunderground v.1.15,2013-09-19 19:25:00,
2013-09-19 15:28:00,69.3,66.6,30.02,WSW,255,0.0,0.0,91,0.00,,,0.00,Wunderground v.1.15,2013-09-19 19:28:00,
2013-09-19 15:30:00,83.1,72.7,30.07,South,188,1.0,2.0,71,0.00,,,0.00,Wunderground v.1.15,2013-09-19 19:30:00,
2013-09-19 15:32:00,83.1,73.1,30.07,South,188,0.0,2.0,72,0.00,,,0.00,Wunderground v.1.15,2013-09-19 19:32:00,
2013-09-19 15:33:00,83.0,72.6,30.07,SW,225,0.0,2.0,71,0.00,,,0.00,Wunderground v.1.15,2013-09-19 19:33:00,
2013-09-19 15:34:00,69.2,66.5,30.02,WSW,255,0.0,0.0,91,0.00,,,0.00,Wunderground v.1.15,2013-09-19 19:34:00,
2013-09-19 15:35:00,82.7,72.3,30.06,SSE,157,0.0,0.0,71,0.00,,,0.00,Wunderground v.1.15,2013-09-19 19:35:00,
2013-09-19 15:36:00,82.6,72.2,30.06,SSE,157,0.0,0.0,71,0.00,,,0.00,Wunderground v.1.15,2013-09-19 19:36:00,
2013-09-19 15:39:00,82.4,72.5,30.06,South,173,0.0,1.0,72,0.00,,,0.00,Wunderground v.1.15,2013-09-19 19:39:00,
2013-09-19 15:40:00,82.4,72.5,30.06,SSW,207,0.0,1.0,72,0.00,,,0.00,Wunderground v.1.15,2013-09-19 19:40:00,
2013-09-19 15:41:00,82.4,72.0,30.06,SSW,207,0.0,1.0,71,0.00,,,0.00,Wunderground v.1.15,2013-09-19 19:41:00,
2013-09-19 15:46:00,82.3,72.8,30.06,SSW,201,1.0,3.0,73,0.00,,,0.00,Wunderground v.1.15,2013-09-19 19:46:00,
2013-09-19 15:47:00,82.3,73.2,30.06,SSW,201,1.0,3.0,74,0.00,,,0.00,Wunderground v.1.15,2013-09-19 19:47:00,
2013-09-19 15:48:00,82.3,72.8,30.06,SW,234,0.0,3.0,73,0.00,,,0.00,Wunderground v.1.15,2013-09-19 19:48:00,
2013-09-19 15:50:00,82.4,72.9,30.06,SSW,207,1.0,3.0,73,0.00,,,0.00,Wunderground v.1.15,2013-09-19 19:50:00,
2013-09-19 15:51:00,68.9,66.5,30.01,WSW,255,0.0,0.0,92,0.00,,,0.00,Wunderground v.1.15,2013-09-19 19:51:00,
2013-09-19 15:53:00,82.5,72.6,30.06,SSE,153,1.0,3.0,72,0.00,,,0.00,Wunderground v.1.15,2013-09-19 19:53:00,
2013-09-19 15:55:00,82.7,72.3,30.06,SW,227,1.0,3.0,71,0.00,,,0.00,Wunderground v.1.15,2013-09-19 19:55:00,
2013-09-19 15:57:00,82.7,72.3,30.06,South,182,1.0,3.0,71,0.00,,,0.00,Wunderground v.1.15,2013-09-19 19:57:00,
2013-09-19 16:00:00,82.8,72.0,30.06,SW,214,1.0,3.0,70,0.00,,,0.00,Wunderground v.1.15,2013-09-19 20:00:00,
2013-09-19 16:05:00,83.0,73.0,30.05,East,90,1.0,1.0,72,0.00,,,0.00,Wunderground v.1.15,2013-09-19 20:05:00,
2013-09-19 16:07:00,83.1,72.7,30.05,SSE,163,1.0,1.0,71,0.00,,,0.00,Wunderground v.1.15,2013-09-19 20:07:00,
2013-09-19 16:08:00,83.1,72.7,30.05,SSE,165,1.0,1.0,71,0.00,,,0.00,Wunderground v.1.15,2013-09-19 20:08:00,
2013-09-19 16:09:00,83.2,72.4,30.05,SSE,165,1.0,1.0,70,0.00,,,0.00,Wunderground v.1.15,2013-09-19 20:09:00,
2013-09-19 16:12:00,83.2,72.8,30.05,SSE,165,0.0,1.0,71,0.00,,,0.00,Wunderground v.1.15,2013-09-19 20:12:00,
2013-09-19 16:13:00,83.1,72.7,30.05,SSE,165,0.0,1.0,71,0.00,,,0.00,Wunderground v.1.15,2013-09-19 20:13:00,
2013-09-19 16:14:00,83.1,73.1,30.05,SSE,165,0.0,1.0,72,0.00,,,0.00,Wunderground v.1.15,2013-09-19 20:14:00,
2013-09-19 16:16:00,83.0,72.2,30.05,SW,216,0.0,1.0,70,0.00,,,0.00,Wunderground v.1.15,2013-09-19 20:16:00,
2013-09-19 16:18:00,83.0,72.6,30.05,SW,218,0.0,1.0,71,0.00,,,0.00,Wunderground v.1.15,2013-09-19 20:18:00,
2013-09-19 16:19:00,83.0,73.4,30.05,WSW,240,0.0,1.0,73,0.00,,,0.00,Wunderground v.1.15,2013-09-19 20:19:00,
2013-09-19 16:22:00,83.0,73.0,30.05,SSW,193,1.0,1.0,72,0.00,,,0.00,Wunderground v.1.15,2013-09-19 20:22:00,
2013-09-19 16:26:00,83.2,72.8,30.05,SE,135,1.0,1.0,71,0.00,,,0.00,Wunderground v.1.15,2013-09-19 20:26:00,
2013-09-19 16:28:00,83.2,72.0,30.05,SSW,213,1.0,1.0,69,0.00,,,0.00,Wunderground v.1.15,2013-09-19 20:28:00,
2013-09-19 16:29:00,83.2,72.8,30.04,SSW,213,1.0,1.0,71,0.00,,,0.00,Wunderground v.1.15,2013-09-19 20:29:00,
2013-09-19 16:31:00,83.2,73.6,30.05,NW,309,1.0,1.0,73,0.00,,,0.00,Wunderground v.1.15,2013-09-19 20:31:00,
2013-09-19 16:36:00,82.9,72.1,30.04,West,270,0.0,0.0,70,0.00,,,0.00,Wunderground v.1.15,2013-09-19 20:36:00,
2013-09-19 16:37:00,82.9,72.5,30.04,SSE,163,0.0,2.0,71,0.00,,,0.00,Wunderground v.1.15,2013-09-19 20:37:00,
2013-09-19 16:38:00,82.9,72.5,30.04,SW,217,0.0,2.0,71,0.00,,,0.00,Wunderground v.1.15,2013-09-19 20:38:00,
2013-09-19 16:39:00,83.0,73.0,30.04,WSW,252,0.0,2.0,72,0.00,,,0.00,Wunderground v.1.15,2013-09-19 20:39:00,
2013-09-19 16:43:00,83.0,73.0,30.04,West,277,0.0,2.0,72,0.00,,,0.00,Wunderground v.1.15,2013-09-19 20:43:00,
2013-09-19 16:47:00,83.1,73.1,30.04,South,188,0.0,3.0,72,0.00,,,0.00,Wunderground v.1.15,2013-09-19 20:47:00,
2013-09-19 16:48:00,83.1,72.3,30.04,SSW,195,1.0,3.0,70,0.00,,,0.00,Wunderground v.1.15,2013-09-19 20:48:00,
2013-09-19 16:49:00,83.1,72.3,30.04,SSW,195,1.0,3.0,70,0.00,,,0.00,Wunderground v.1.15,2013-09-19 20:49:00,
2013-09-19 16:50:00,83.1,72.7,30.04,SSW,195,1.0,3.0,71,0.00,,,0.00,Wunderground v.1.15,2013-09-19 20:50:00,
2013-09-19 16:51:00,83.0,73.0,30.04,SSW,199,1.0,3.0,72,0.00,,,0.00,Wunderground v.1.15,2013-09-19 20:51:00,
2013-09-19 16:54:00,82.8,72.4,30.04,SSW,211,1.0,3.0,71,0.00,,,0.00,Wunderground v.1.15,2013-09-19 20:54:00,
2013-09-19 16:56:00,82.7,72.7,30.04,West,259,1.0,1.0,72,0.00,,,0.00,Wunderground v.1.15,2013-09-19 20:56:00,
2013-09-19 16:58:00,82.7,72.7,30.04,WSW,258,1.0,1.0,72,0.00,,,0.00,Wunderground v.1.15,2013-09-19 20:58:00,
2013-09-19 17:02:00,82.4,72.0,30.04,SSW,205,1.0,4.0,71,0.00,,,0.00,Wunderground v.1.15,2013-09-19 21:02:00,
2013-09-19 17:03:00,82.4,72.5,30.04,SSW,205,1.0,4.0,72,0.00,,,0.00,Wunderground v.1.15,2013-09-19 21:03:00,
2013-09-19 17:05:00,82.2,73.1,30.04,SSW,200,1.0,1.0,74,0.00,,,0.00,Wunderground v.1.15,2013-09-19 21:05:00,
2013-09-19 17:07:00,82.1,73.4,30.04,WSW,240,1.0,4.0,75,0.00,,,0.00,Wunderground v.1.15,2013-09-19 21:07:00,
2013-09-19 17:09:00,81.9,72.4,30.03,WSW,243,1.0,4.0,73,0.00,,,0.00,Wunderground v.1.15,2013-09-19 21:09:00,
2013-09-19 17:11:00,81.7,71.8,30.03,South,187,0.0,4.0,72,0.00,,,0.00,Wunderground v.1.15,2013-09-19 21:11:00,
2013-09-19 17:12:00,81.6,72.5,30.03,South,187,0.0,4.0,74,0.00,,,0.00,Wunderground v.1.15,2013-09-19 21:12:00,
2013-09-19 17:14:00,81.5,72.0,30.03,SSW,196,0.0,4.0,73,0.00,,,0.00,Wunderground v.1.15,2013-09-19 21:14:00,
2013-09-19 17:15:00,81.4,72.3,30.03,SSW,197,0.0,1.0,74,0.00,,,0.00,Wunderground v.1.15,2013-09-19 21:15:00,
2013-09-19 17:17:00,81.4,71.9,30.03,SSW,197,0.0,1.0,73,0.00,,,0.00,Wunderground v.1.15,2013-09-19 21:17:00,
2013-09-19 17:20:00,81.3,71.8,30.03,South,188,0.0,1.0,73,0.00,,,0.00,Wunderground v.1.15,2013-09-19 21:20:00,
2013-09-19 17:21:00,81.4,72.3,30.03,South,188,0.0,1.0,74,0.00,,,0.00,Wunderground v.1.15,2013-09-19 21:21:00,
2013-09-19 17:24:00,81.4,71.9,30.03,SW,219,1.0,1.0,73,0.00,,,0.00,Wunderground v.1.15,2013-09-19 21:24:00,
2013-09-19 17:26:00,81.5,73.2,30.03,SW,219,1.0,1.0,76,0.00,,,0.00,Wunderground v.1.15,2013-09-19 21:26:00,
2013-09-19 17:27:00,81.4,73.5,30.03,SW,219,1.0,1.0,77,0.00,,,0.00,Wunderground v.1.15,2013-09-19 21:27:00,
2013-09-19 17:28:00,81.4,73.1,30.03,SW,219,1.0,1.0,76,0.00,,,0.00,Wunderground v.1.15,2013-09-19 21:28:00,
2013-09-19 17:30:00,81.4,71.9,30.03,NNW,340,1.0,1.0,73,0.00,,,0.00,Wunderground v.1.15,2013-09-19 21:30:00,
2013-09-19 17:33:00,81.5,72.8,30.03,North,349,1.0,1.0,75,0.00,,,0.00,Wunderground v.1.15,2013-09-19 21:33:00,
2013-09-19 17:34:00,81.5,72.8,30.04,North,355,0.0,1.0,75,0.00,,,0.00,Wunderground v.1.15,2013-09-19 21:34:00,
2013-09-19 17:36:00,81.5,71.6,30.04,SSW,200,1.0,1.0,72,0.00,,,0.00,Wunderground v.1.15,2013-09-19 21:36:00,
2013-09-19 17:38:00,81.6,72.1,30.04,SSW,200,1.0,2.0,73,0.00,,,0.00,Wunderground v.1.15,2013-09-19 21:38:00,
2013-09-19 17:40:00,81.6,72.1,30.03,SSW,198,1.0,2.0,73,0.00,,,0.00,Wunderground v.1.15,2013-09-19 21:40:00,
2013-09-19 17:41:00,81.6,72.1,30.04,SSW,195,1.0,2.0,73,0.00,,,0.00,Wunderground v.1.15,2013-09-19 21:41:00,
2013-09-19 17:44:00,81.6,71.7,30.03,SW,231,1.0,4.0,72,0.00,,,0.00,Wunderground v.1.15,2013-09-19 21:44:00,
2013-09-19 17:47:00,81.5,72.0,30.03,SW,231,1.0,1.0,73,0.00,,,0.00,Wunderground v.1.15,2013-09-19 21:47:00,
2013-09-19 17:50:00,81.3,71.8,30.03,SW,236,1.0,1.0,73,0.00,,,0.00,Wunderground v.1.15,2013-09-19 21:50:00,
2013-09-19 17:52:00,81.2,71.7,30.03,SW,236,0.0,1.0,73,0.00,,,0.00,Wunderground v.1.15,2013-09-19 21:52:00,
2013-09-19 17:53:00,81.1,71.2,30.03,SSW,202,0.0,2.0,72,0.00,,,0.00,Wunderground v.1.15,2013-09-19 21:53:00,
2013-09-19 17:58:00,81.1,72.8,30.03,SW,227,0.0,1.0,76,0.00,,,0.00,Wunderground v.1.15,2013-09-19 21:58:00,
2013-09-19 18:00:00,81.1,72.0,30.03,SSW,198,0.0,1.0,74,0.00,,,0.00,Wunderground v.1.15,2013-09-19 22:00:00,
2013-09-19 18:06:00,80.8,72.1,30.03,SW,225,1.0,1.0,75,0.00,,,0.00,Wunderground v.1.15,2013-09-19 22:06:00,
2013-09-19 18:07:00,80.7,72.0,30.03,SW,225,1.0,1.0,75,0.00,,,0.00,Wunderground v.1.15,2013-09-19 22:07:00,
2013-09-19 18:10:00,80.5,71.4,30.03,SW,236,1.0,1.0,74,0.00,,,0.00,Wunderground v.1.15,2013-09-19 22:10:00,
2013-09-19 18:13:00,80.4,71.3,30.03,WSW,237,0.0,1.0,74,0.00,,,0.00,Wunderground v.1.15,2013-09-19 22:13:00,
2013-09-19 18:16:00,80.2,71.9,30.03,SSW,192,0.0,0.0,76,0.00,,,0.00,Wunderground v.1.15,2013-09-19 22:16:00,
2013-09-19 18:17:00,80.2,71.9,30.03,SSW,192,0.0,0.0,76,0.00,,,0.00,Wunderground v.1.15,2013-09-19 22:17:00,
2013-09-19 18:18:00,80.2,71.6,30.03,SSW,192,0.0,0.0,75,0.00,,,0.00,Wunderground v.1.15,2013-09-19 22:18:00,
2013-09-19 18:19:00,80.2,71.9,30.03,SSW,192,0.0,0.0,76,0.00,,,0.00,Wunderground v.1.15,2013-09-19 22:19:00,
2013-09-19 18:22:00,80.1,71.8,30.03,SSW,204,0.0,1.0,76,0.00,,,0.00,Wunderground v.1.15,2013-09-19 22:22:00,
2013-09-19 18:25:00,80.0,71.4,30.03,WSW,246,0.0,0.0,75,0.00,,,0.00,Wunderground v.1.15,2013-09-19 22:25:00,
2013-09-19 18:27:00,80.0,72.1,30.03,WSW,246,0.0,0.0,77,0.00,,,0.00,Wunderground v.1.15,2013-09-19 22:27:00,
2013-09-19 18:28:00,79.9,72.0,30.02,SSE,147,0.0,4.0,77,0.00,,,0.00,Wunderground v.1.15,2013-09-19 22:28:00,
2013-09-19 18:31:00,79.8,72.3,30.02,North,355,1.0,4.0,78,0.00,,,0.00,Wunderground v.1.15,2013-09-19 22:31:00,
2013-09-19 18:32:00,79.7,72.2,30.02,SSW,202,1.0,4.0,78,0.00,,,0.00,Wunderground v.1.15,2013-09-19 22:32:00,
2013-09-19 18:34:00,79.7,71.8,30.02,SW,217,1.0,4.0,77,0.00,,,0.00,Wunderground v.1.15,2013-09-19 22:34:00,
2013-09-19 18:38:00,79.6,71.4,30.02,SSW,194,1.0,4.0,76,0.00,,,0.00,Wunderground v.1.15,2013-09-19 22:38:00,
2013-09-19 18:39:00,79.5,71.7,30.02,SSW,194,0.0,4.0,77,0.00,,,0.00,Wunderground v.1.15,2013-09-19 22:39:00,
2013-09-19 18:40:00,79.5,71.3,30.02,SSW,194,0.0,4.0,76,0.00,,,0.00,Wunderground v.1.15,2013-09-19 22:40:00,
2013-09-19 18:43:00,79.4,71.6,30.02,SSW,194,0.0,4.0,77,0.00,,,0.00,Wunderground v.1.15,2013-09-19 22:43:00,
2013-09-19 18:46:00,79.3,71.5,30.02,SSW,194,0.0,0.0,77,0.00,,,0.00,Wunderground v.1.15,2013-09-19 22:46:00,
2013-09-19 18:47:00,79.3,71.8,30.02,South,174,0.0,0.0,78,0.00,,,0.00,Wunderground v.1.15,2013-09-19 22:47:00,
2013-09-19 18:49:00,79.2,71.4,30.02,SW,215,0.0,1.0,77,0.00,,,0.00,Wunderground v.1.15,2013-09-19 22:49:00,
2013-09-19 18:53:00,79.0,70.8,30.01,SW,228,0.0,1.0,76,0.00,,,0.00,Wunderground v.1.15,2013-09-19 22:53:00,
2013-09-19 18:55:00,79.0,71.2,30.01,SW,228,0.0,0.0,77,0.00,,,0.00,Wunderground v.1.15,2013-09-19 22:55:00,
2013-09-19 18:57:00,78.9,71.1,30.01,SW,228,0.0,0.0,77,0.00,,,0.00,Wunderground v.1.15,2013-09-19 22:57:00,
2013-09-19 18:59:00,78.8,71.0,30.01,South,173,0.0,1.0,77,0.00,,,0.00,Wunderground v.1.15,2013-09-19 22:59:00,
2013-09-19 19:00:00,78.7,70.9,30.01,South,173,0.0,1.0,77,0.00,,,0.00,Wunderground v.1.15,2013-09-19 23:00:00,
2013-09-19 19:03:00,78.6,70.8,30.01,South,178,0.0,1.0,77,0.00,,,0.00,Wunderground v.1.15,2013-09-19 23:03:00,
2013-09-19 19:05:00,78.6,71.2,30.01,South,178,0.0,1.0,78,0.00,,,0.00,Wunderground v.1.15,2013-09-19 23:05:00,
2013-09-19 19:07:00,78.5,71.1,30.01,South,178,0.0,0.0,78,0.00,,,0.00,Wunderground v.1.15,2013-09-19 23:07:00,
2013-09-19 19:11:00,78.4,71.0,30.01,South,178,0.0,1.0,78,0.00,,,0.00,Wunderground v.1.15,2013-09-19 23:11:00,
2013-09-19 19:13:00,78.4,71.0,30.01,South,178,0.0,1.0,78,0.00,,,0.00,Wunderground v.1.15,2013-09-19 23:13:00,
2013-09-19 19:14:00,78.3,70.9,30.01,South,178,0.0,1.0,78,0.00,,,0.00,Wunderground v.1.15,2013-09-19 23:14:00,
2013-09-19 19:15:00,78.3,70.9,30.01,South,178,0.0,0.0,78,0.00,,,0.00,Wunderground v.1.15,2013-09-19 23:15:00,
2013-09-19 19:16:00,78.3,70.9,30.01,South,178,0.0,0.0,78,0.00,,,0.00,Wunderground v.1.15,2013-09-19 23:16:00,
2013-09-19 19:21:00,78.0,70.6,30.01,South,188,0.0,0.0,78,0.00,,,0.00,Wunderground v.1.15,2013-09-19 23:21:00,
2013-09-19 19:23:00,77.9,70.9,30.01,South,188,0.0,0.0,79,0.00,,,0.00,Wunderground v.1.15,2013-09-19 23:23:00,
2013-09-19 19:26:00,77.8,70.8,30.01,South,188,0.0,0.0,79,0.00,,,0.00,Wunderground v.1.15,2013-09-19 23:26:00,
2013-09-19 19:29:00,77.6,70.6,30.01,South,188,0.0,0.0,79,0.00,,,0.00,Wunderground v.1.15,2013-09-19 23:29:00,
2013-09-19 19:31:00,77.5,70.5,30.01,South,188,0.0,0.0,79,0.00,,,0.00,Wunderground v.1.15,2013-09-19 23:31:00,
2013-09-19 19:33:00,77.5,70.5,30.01,South,188,0.0,0.0,79,0.00,,,0.00,Wunderground v.1.15,2013-09-19 23:33:00,
2013-09-19 19:36:00,77.4,70.4,30.01,South,188,0.0,0.0,79,0.00,,,0.00,Wunderground v.1.15,2013-09-19 23:36:00,
2013-09-19 19:37:00,77.3,70.3,30.01,South,188,0.0,0.0,79,0.00,,,0.00,Wunderground v.1.15,2013-09-19 23:37:00,
2013-09-19 19:38:00,77.3,70.3,30.01,South,188,0.0,0.0,79,0.00,,,0.00,Wunderground v.1.15,2013-09-19 23:38:00,
2013-09-19 19:40:00,77.2,70.2,30.01,South,188,0.0,0.0,79,0.00,,,0.00,Wunderground v.1.15,2013-09-19 23:40:00,
2013-09-19 19:42:00,77.1,70.1,30.01,South,188,0.0,0.0,79,0.00,,,0.00,Wunderground v.1.15,2013-09-19 23:42:00,
2013-09-19 19:45:00,77.0,70.4,30.01,South,188,0.0,0.0,80,0.00,,,0.00,Wunderground v.1.15,2013-09-19 23:45:00,
2013-09-19 19:47:00,76.9,70.3,30.01,South,188,0.0,0.0,80,0.00,,,0.00,Wunderground v.1.15,2013-09-19 23:47:00,
2013-09-19 19:48:00,76.8,70.2,30.01,South,188,0.0,0.0,80,0.00,,,0.00,Wunderground v.1.15,2013-09-19 23:48:00,
2013-09-19 19:51:00,76.7,70.1,30.01,South,188,0.0,0.0,80,0.00,,,0.00,Wunderground v.1.15,2013-09-19 23:51:00,
2013-09-19 19:53:00,76.6,70.0,30.01,South,188,0.0,0.0,80,0.00,,,0.00,Wunderground v.1.15,2013-09-19 23:53:00,
2013-09-19 19:55:00,76.4,69.8,30.00,South,188,0.0,0.0,80,0.00,,,0.00,Wunderground v.1.15,2013-09-19 23:55:00,
2013-09-19 19:58:00,76.3,70.0,30.00,South,188,0.0,0.0,81,0.00,,,0.00,Wunderground v.1.15,2013-09-19 23:58:00,
2013-09-19 19:59:00,76.3,70.0,30.00,South,188,0.0,0.0,81,0.00,,,0.00,Wunderground v.1.15,2013-09-19 23:59:00,
2013-09-19 20:00:00,76.2,69.9,30.00,South,188,0.0,0.0,81,0.00,,,0.00,Wunderground v.1.15,2013-09-20 00:00:00,
2013-09-19 20:03:00,76.1,69.8,30.00,South,188,0.0,0.0,81,0.00,,,0.00,Wunderground v.1.15,2013-09-20 00:03:00,
2013-09-19 20:05:00,76.0,69.7,30.00,South,188,0.0,0.0,81,0.00,,,0.00,Wunderground v.1.15,2013-09-20 00:05:00,
2013-09-19 20:06:00,76.0,69.7,30.00,South,188,0.0,0.0,81,0.00,,,0.00,Wunderground v.1.15,2013-09-20 00:06:00,
2013-09-19 20:11:00,75.8,69.6,30.00,South,188,0.0,0.0,81,0.00,,,0.00,Wunderground v.1.15,2013-09-20 00:11:00,
2013-09-19 20:13:00,75.7,69.8,30.00,South,188,0.0,0.0,82,0.00,,,0.00,Wunderground v.1.15,2013-09-20 00:13:00,
2013-09-19 20:14:00,75.7,69.8,30.00,South,188,0.0,0.0,82,0.00,,,0.00,Wunderground v.1.15,2013-09-20 00:14:00,
2013-09-19 20:17:00,75.5,69.6,30.00,South,188,0.0,0.0,82,0.00,,,0.00,Wunderground v.1.15,2013-09-20 00:17:00,
2013-09-19 20:19:00,75.5,69.6,30.00,South,188,0.0,0.0,82,0.00,,,0.00,Wunderground v.1.15,2013-09-20 00:19:00,
2013-09-19 20:21:00,75.4,69.5,30.00,South,188,0.0,0.0,82,0.00,,,0.00,Wunderground v.1.15,2013-09-20 00:21:00,
2013-09-19 20:24:00,75.3,69.4,30.01,South,188,0.0,0.0,82,0.00,,,0.00,Wunderground v.1.15,2013-09-20 00:24:00,
2013-09-19 20:25:00,75.3,69.4,30.01,South,188,0.0,0.0,82,0.00,,,0.00,Wunderground v.1.15,2013-09-20 00:25:00,
2013-09-19 20:26:00,75.2,69.3,30.01,South,188,0.0,0.0,82,0.00,,,0.00,Wunderground v.1.15,2013-09-20 00:26:00,
2013-09-19 20:30:00,75.1,69.6,30.01,South,188,0.0,0.0,83,0.00,,,0.00,Wunderground v.1.15,2013-09-20 00:30:00,
2013-09-19 20:32:00,75.0,69.5,30.01,South,188,0.0,0.0,83,0.00,,,0.00,Wunderground v.1.15,2013-09-20 00:32:00,
2013-09-19 20:34:00,74.9,69.4,30.01,South,188,0.0,0.0,83,0.00,,,0.00,Wunderground v.1.15,2013-09-20 00:34:00,
2013-09-19 20:38:00,74.8,69.3,30.01,South,188,0.0,0.0,83,0.00,,,0.00,Wunderground v.1.15,2013-09-20 00:38:00,
2013-09-19 20:39:00,74.8,69.3,30.01,South,188,0.0,0.0,83,0.00,,,0.00,Wunderground v.1.15,2013-09-20 00:39:00,
2013-09-19 20:42:00,74.6,69.4,30.01,South,188,0.0,0.0,84,0.00,,,0.00,Wunderground v.1.15,2013-09-20 00:42:00,
2013-09-19 20:44:00,74.6,69.4,30.01,South,188,0.0,0.0,84,0.00,,,0.00,Wunderground v.1.15,2013-09-20 00:44:00,
2013-09-19 20:46:00,74.5,69.0,30.01,South,188,0.0,0.0,83,0.00,,,0.00,Wunderground v.1.15,2013-09-20 00:46:00,
2013-09-19 20:47:00,74.5,69.0,30.01,South,188,0.0,0.0,83,0.00,,,0.00,Wunderground v.1.15,2013-09-20 00:47:00,
2013-09-19 20:48:00,74.5,69.3,30.01,South,188,0.0,0.0,84,0.00,,,0.00,Wunderground v.1.15,2013-09-20 00:48:00,
2013-09-19 20:50:00,74.4,69.2,30.01,South,188,0.0,0.0,84,0.00,,,0.00,Wunderground v.1.15,2013-09-20 00:50:00,
2013-09-19 20:52:00,74.3,69.1,30.01,South,188,0.0,0.0,84,0.00,,,0.00,Wunderground v.1.15,2013-09-20 00:52:00,
2013-09-19 20:53:00,74.3,69.1,30.02,South,188,0.0,0.0,84,0.00,,,0.00,Wunderground v.1.15,2013-09-20 00:53:00,
2013-09-19 20:57:00,74.2,69.4,30.01,South,188,0.0,0.0,85,0.00,,,0.00,Wunderground v.1.15,2013-09-20 00:57:00,
2013-09-19 20:59:00,74.1,69.3,30.02,South,188,0.0,0.0,85,0.00,,,0.00,Wunderground v.1.15,2013-09-20 00:59:00,
2013-09-19 21:01:00,74.0,69.2,30.01,South,188,0.0,0.0,85,0.00,,,0.00,Wunderground v.1.15,2013-09-20 01:01:00,
2013-09-19 21:02:00,74.0,69.2,30.01,South,188,0.0,0.0,85,0.00,,,0.00,Wunderground v.1.15,2013-09-20 01:02:00,
2013-09-19 21:05:00,73.9,69.1,30.01,South,188,0.0,0.0,85,0.00,,,0.00,Wunderground v.1.15,2013-09-20 01:05:00,
2013-09-19 21:07:00,73.8,69.0,30.02,South,188,0.0,0.0,85,0.00,,,0.00,Wunderground v.1.15,2013-09-20 01:07:00,
2013-09-19 21:08:00,73.8,69.0,30.02,South,188,0.0,0.0,85,0.00,,,0.00,Wunderground v.1.15,2013-09-20 01:08:00,
2013-09-19 21:09:00,73.7,68.9,30.02,South,188,0.0,0.0,85,0.00,,,0.00,Wunderground v.1.15,2013-09-20 01:09:00,
2013-09-19 21:13:00,73.6,69.2,30.02,South,188,0.0,0.0,86,0.00,,,0.00,Wunderground v.1.15,2013-09-20 01:13:00,
2013-09-19 21:14:00,73.6,69.2,30.02,South,188,0.0,0.0,86,0.00,,,0.00,Wunderground v.1.15,2013-09-20 01:14:00,
2013-09-19 21:15:00,73.6,69.2,30.02,South,188,0.0,0.0,86,0.00,,,0.00,Wunderground v.1.15,2013-09-20 01:15:00,
2013-09-19 21:16:00,73.5,69.1,30.02,South,188,0.0,0.0,86,0.00,,,0.00,Wunderground v.1.15,2013-09-20 01:16:00,
2013-09-19 21:20:00,73.4,69.0,30.02,South,188,0.0,0.0,86,0.00,,,0.00,Wunderground v.1.15,2013-09-20 01:20:00,
2013-09-19 21:21:00,73.4,69.0,30.02,South,188,0.0,0.0,86,0.00,,,0.00,Wunderground v.1.15,2013-09-20 01:21:00,
2013-09-19 21:22:00,73.4,69.0,30.02,South,188,0.0,0.0,86,0.00,,,0.00,Wunderground v.1.15,2013-09-20 01:22:00,
2013-09-19 21:23:00,73.4,69.3,30.02,South,188,0.0,0.0,87,0.00,,,0.00,Wunderground v.1.15,2013-09-20 01:23:00,
2013-09-19 21:26:00,73.3,69.2,30.02,South,188,0.0,0.0,87,0.00,,,0.00,Wunderground v.1.15,2013-09-20 01:26:00,
2013-09-19 21:27:00,73.3,69.2,30.02,South,188,0.0,0.0,87,0.00,,,0.00,Wunderground v.1.15,2013-09-20 01:27:00,
2013-09-19 21:30:00,73.1,69.0,30.02,South,188,0.0,0.0,87,0.00,,,0.00,Wunderground v.1.15,2013-09-20 01:30:00,
2013-09-19 21:32:00,73.1,69.0,30.02,South,187,0.0,0.0,87,0.00,,,0.00,Wunderground v.1.15,2013-09-20 01:32:00,
2013-09-19 21:36:00,73.0,68.9,30.02,South,187,0.0,0.0,87,0.00,,,0.00,Wunderground v.1.15,2013-09-20 01:36:00,
2013-09-19 21:38:00,72.9,68.8,30.02,South,187,0.0,0.0,87,0.00,,,0.00,Wunderground v.1.15,2013-09-20 01:38:00,
2013-09-19 21:42:00,72.9,68.8,30.02,South,187,0.0,0.0,87,0.00,,,0.00,Wunderground v.1.15,2013-09-20 01:42:00,
2013-09-19 21:44:00,72.8,68.7,30.02,South,187,0.0,0.0,87,0.00,,,0.00,Wunderground v.1.15,2013-09-20 01:44:00,
2013-09-19 21:46:00,72.8,68.7,30.02,South,187,0.0,0.0,87,0.00,,,0.00,Wunderground v.1.15,2013-09-20 01:46:00,
2013-09-19 21:50:00,72.8,69.0,30.02,South,187,0.0,0.0,88,0.00,,,0.00,Wunderground v.1.15,2013-09-20 01:50:00,
2013-09-19 21:52:00,72.7,68.9,30.02,SSW,201,0.0,0.0,88,0.00,,,0.00,Wunderground v.1.15,2013-09-20 01:52:00,
2013-09-19 21:53:00,72.7,68.9,30.02,SSW,201,0.0,0.0,88,0.00,,,0.00,Wunderground v.1.15,2013-09-20 01:53:00,
2013-09-19 21:56:00,72.7,68.9,30.02,SSW,201,0.0,0.0,88,0.00,,,0.00,Wunderground v.1.15,2013-09-20 01:56:00,
2013-09-19 21:57:00,72.7,68.9,30.02,SSW,201,0.0,0.0,88,0.00,,,0.00,Wunderground v.1.15,2013-09-20 01:57:00,
2013-09-19 21:58:00,72.7,68.9,30.02,SSW,201,0.0,0.0,88,0.00,,,0.00,Wunderground v.1.15,2013-09-20 01:58:00,
2013-09-19 21:59:00,72.6,68.8,30.02,SSW,201,0.0,0.0,88,0.00,,,0.00,Wunderground v.1.15,2013-09-20 01:59:00,
2013-09-19 22:02:00,72.6,68.8,30.02,SSW,201,0.0,0.0,88,0.00,,,0.00,Wunderground v.1.15,2013-09-20 02:02:00,
2013-09-19 22:04:00,72.6,68.8,30.02,SSW,201,0.0,0.0,88,0.00,,,0.00,Wunderground v.1.15,2013-09-20 02:04:00,
2013-09-19 22:06:00,72.5,68.7,30.02,SSW,201,0.0,0.0,88,0.00,,,0.00,Wunderground v.1.15,2013-09-20 02:06:00,
2013-09-19 22:08:00,72.5,68.7,30.02,SSW,201,0.0,0.0,88,0.00,,,0.00,Wunderground v.1.15,2013-09-20 02:08:00,
2013-09-19 22:09:00,72.5,68.7,30.02,SSW,201,0.0,0.0,88,0.00,,,0.00,Wunderground v.1.15,2013-09-20 02:09:00,
2013-09-19 22:10:00,72.4,68.6,30.02,SSW,201,0.0,0.0,88,0.00,,,0.00,Wunderground v.1.15,2013-09-20 02:10:00,
2013-09-19 22:11:00,72.4,68.6,30.02,SSW,201,0.0,0.0,88,0.00,,,0.00,Wunderground v.1.15,2013-09-20 02:11:00,
2013-09-19 22:12:00,72.4,68.6,30.02,SSW,201,0.0,0.0,88,0.00,,,0.00,Wunderground v.1.15,2013-09-20 02:12:00,
2013-09-19 22:13:00,72.4,68.6,30.02,SSW,201,0.0,0.0,88,0.00,,,0.00,Wunderground v.1.15,2013-09-20 02:13:00,
2013-09-19 22:14:00,72.4,68.6,30.02,SSW,201,0.0,0.0,88,0.00,,,0.00,Wunderground v.1.15,2013-09-20 02:14:00,
2013-09-19 22:17:00,72.3,68.5,30.02,SSW,201,0.0,0.0,88,0.00,,,0.00,Wunderground v.1.15,2013-09-20 02:17:00,
2013-09-19 22:18:00,72.3,68.5,30.02,SSW,201,0.0,0.0,88,0.00,,,0.00,Wunderground v.1.15,2013-09-20 02:18:00,
2013-09-19 22:19:00,72.3,68.5,30.02,SSW,201,0.0,0.0,88,0.00,,,0.00,Wunderground v.1.15,2013-09-20 02:19:00,
2013-09-19 22:21:00,72.2,68.4,30.02,SSW,201,0.0,0.0,88,0.00,,,0.00,Wunderground v.1.15,2013-09-20 02:21:00,
2013-09-19 22:23:00,72.2,68.4,30.02,SSW,201,0.0,0.0,88,0.00,,,0.00,Wunderground v.1.15,2013-09-20 02:23:00,
2013-09-19 22:24:00,72.2,68.4,30.02,SSW,201,0.0,0.0,88,0.00,,,0.00,Wunderground v.1.15,2013-09-20 02:24:00,
2013-09-19 22:26:00,72.2,68.4,30.02,SSW,201,0.0,0.0,88,0.00,,,0.00,Wunderground v.1.15,2013-09-20 02:26:00,
2013-09-19 22:28:00,72.2,68.4,30.02,SSW,201,0.0,0.0,88,0.00,,,0.00,Wunderground v.1.15,2013-09-20 02:28:00,
2013-09-19 22:29:00,72.1,68.3,30.02,SSW,201,0.0,0.0,88,0.00,,,0.00,Wunderground v.1.15,2013-09-20 02:29:00,
2013-09-19 22:30:00,72.1,68.3,30.02,SSW,201,0.0,0.0,88,0.00,,,0.00,Wunderground v.1.15,2013-09-20 02:30:00,
2013-09-19 22:32:00,72.1,68.3,30.02,SSW,201,0.0,0.0,88,0.00,,,0.00,Wunderground v.1.15,2013-09-20 02:32:00,
2013-09-19 22:33:00,72.1,68.7,30.02,SSW,201,0.0,0.0,89,0.00,,,0.00,Wunderground v.1.15,2013-09-20 02:33:00,
2013-09-19 22:34:00,72.1,68.7,30.02,SSW,201,0.0,0.0,89,0.00,,,0.00,Wunderground v.1.15,2013-09-20 02:34:00,
2013-09-19 22:36:00,72.1,68.7,30.02,SSW,201,0.0,0.0,89,0.00,,,0.00,Wunderground v.1.15,2013-09-20 02:36:00,
2013-09-19 22:38:00,72.1,68.7,30.02,SSW,201,0.0,0.0,89,0.00,,,0.00,Wunderground v.1.15,2013-09-20 02:38:00,
2013-09-19 22:40:00,72.0,68.6,30.02,SSW,201,0.0,0.0,89,0.00,,,0.00,Wunderground v.1.15,2013-09-20 02:40:00,
2013-09-19 22:41:00,72.0,68.6,30.02,SSW,201,0.0,0.0,89,0.00,,,0.00,Wunderground v.1.15,2013-09-20 02:41:00,
2013-09-19 22:42:00,72.0,68.6,30.02,SSW,201,0.0,0.0,89,0.00,,,0.00,Wunderground v.1.15,2013-09-20 02:42:00,
2013-09-19 22:44:00,72.0,68.6,30.02,SSW,201,0.0,0.0,89,0.00,,,0.00,Wunderground v.1.15,2013-09-20 02:44:00,
2013-09-19 22:46:00,71.9,68.5,30.02,SSW,201,0.0,0.0,89,0.00,,,0.00,Wunderground v.1.15,2013-09-20 02:46:00,
2013-09-19 22:47:00,71.9,68.5,30.02,SSW,201,0.0,0.0,89,0.00,,,0.00,Wunderground v.1.15,2013-09-20 02:47:00,
2013-09-19 22:49:00,71.9,68.5,30.02,SSW,201,0.0,0.0,89,0.00,,,0.00,Wunderground v.1.15,2013-09-20 02:49:00,
2013-09-19 22:52:00,71.8,68.4,30.02,SSW,201,0.0,0.0,89,0.00,,,0.00,Wunderground v.1.15,2013-09-20 02:52:00,
2013-09-19 22:53:00,71.8,68.4,30.02,SSW,201,0.0,0.0,89,0.00,,,0.00,Wunderground v.1.15,2013-09-20 02:53:00,
2013-09-19 22:54:00,71.8,68.4,30.02,SSW,201,0.0,0.0,89,0.00,,,0.00,Wunderground v.1.15,2013-09-20 02:54:00,
2013-09-19 22:55:00,71.8,68.4,30.02,SSW,201,0.0,0.0,89,0.00,,,0.00,Wunderground v.1.15,2013-09-20 02:55:00,
2013-09-19 22:58:00,71.7,68.3,30.02,SSW,201,0.0,0.0,89,0.00,,,0.00,Wunderground v.1.15,2013-09-20 02:58:00,
2013-09-19 23:00:00,71.7,68.3,30.02,SSW,201,0.0,0.0,89,0.00,,,0.00,Wunderground v.1.15,2013-09-20 03:00:00,
2013-09-19 23:01:00,71.7,68.3,30.02,SSW,201,0.0,0.0,89,0.00,,,0.00,Wunderground v.1.15,2013-09-20 03:01:00,
2013-09-19 23:04:00,71.6,68.2,30.02,SSW,201,0.0,0.0,89,0.00,,,0.00,Wunderground v.1.15,2013-09-20 03:04:00,
2013-09-19 23:05:00,71.6,68.2,30.02,SSW,201,0.0,0.0,89,0.00,,,0.00,Wunderground v.1.15,2013-09-20 03:05:00,
2013-09-19 23:06:00,71.6,68.2,30.02,SSW,201,0.0,0.0,89,0.00,,,0.00,Wunderground v.1.15,2013-09-20 03:06:00,
2013-09-19 23:09:00,71.6,68.2,30.02,SSW,201,0.0,0.0,89,0.00,,,0.00,Wunderground v.1.15,2013-09-20 03:09:00,
2013-09-19 23:10:00,71.6,68.2,30.02,SSW,201,0.0,0.0,89,0.00,,,0.00,Wunderground v.1.15,2013-09-20 03:10:00,
2013-09-19 23:11:00,71.5,68.1,30.02,SSW,201,0.0,0.0,89,0.00,,,0.00,Wunderground v.1.15,2013-09-20 03:11:00,
2013-09-19 23:12:00,71.6,68.2,30.02,SSW,201,0.0,0.0,89,0.00,,,0.00,Wunderground v.1.15,2013-09-20 03:12:00,
2013-09-19 23:14:00,71.5,68.1,30.02,SSW,201,0.0,0.0,89,0.00,,,0.00,Wunderground v.1.15,2013-09-20 03:14:00,
2013-09-19 23:17:00,71.5,68.1,30.02,SSW,201,0.0,0.0,89,0.00,,,0.00,Wunderground v.1.15,2013-09-20 03:17:00,
2013-09-19 23:19:00,71.5,68.1,30.02,SSW,201,0.0,0.0,89,0.00,,,0.00,Wunderground v.1.15,2013-09-20 03:19:00,
2013-09-19 23:20:00,71.5,68.1,30.02,SSW,201,0.0,0.0,89,0.00,,,0.00,Wunderground v.1.15,2013-09-20 03:20:00,
2013-09-19 23:22:00,71.5,68.1,30.02,SSW,201,0.0,0.0,89,0.00,,,0.00,Wunderground v.1.15,2013-09-20 03:22:00,
2013-09-19 23:25:00,71.5,67.8,30.02,SSW,201,0.0,0.0,88,0.00,,,0.00,Wunderground v.1.15,2013-09-20 03:25:00,
2013-09-19 23:27:00,71.5,67.8,30.02,SSW,201,0.0,0.0,88,0.00,,,0.00,Wunderground v.1.15,2013-09-20 03:27:00,
2013-09-19 23:32:00,71.5,67.8,30.02,SSW,201,0.0,0.0,88,0.00,,,0.00,Wunderground v.1.15,2013-09-20 03:32:00,
2013-09-19 23:33:00,71.4,67.7,30.02,SSW,201,0.0,0.0,88,0.00,,,0.00,Wunderground v.1.15,2013-09-20 03:33:00,
2013-09-19 23:34:00,71.4,67.7,30.02,SSW,201,0.0,0.0,88,0.00,,,0.00,Wunderground v.1.15,2013-09-20 03:34:00,
2013-09-19 23:39:00,71.3,67.9,30.02,SSW,201,0.0,0.0,89,0.00,,,0.00,Wunderground v.1.15,2013-09-20 03:39:00,
2013-09-19 23:43:00,71.3,67.9,30.02,SSW,201,0.0,0.0,89,0.00,,,0.00,Wunderground v.1.15,2013-09-20 03:43:00,
2013-09-19 23:44:00,71.3,67.9,30.02,SSW,201,0.0,0.0,89,0.00,,,0.00,Wunderground v.1.15,2013-09-20 03:44:00,
2013-09-19 23:45:00,71.3,67.9,30.02,SSW,201,0.0,0.0,89,0.00,,,0.00,Wunderground v.1.15,2013-09-20 03:45:00,
2013-09-19 23:50:00,71.2,67.8,30.02,SSW,201,0.0,0.0,89,0.00,,,0.00,Wunderground v.1.15,2013-09-20 03:50:00,
2013-09-19 23:51:00,71.2,67.8,30.02,SSW,201,0.0,0.0,89,0.00,,,0.00,Wunderground v.1.15,2013-09-20 03:51:00,
2013-09-19 23:54:00,71.2,67.8,30.02,SSW,201,0.0,0.0,89,0.00,,,0.00,Wunderground v.1.15,2013-09-20 03:54:00,
2013-09-19 23:56:00,71.2,67.8,30.02,SSW,201,0.0,0.0,89,0.00,,,0.00,Wunderground v.1.15,2013-09-20 03:56:00,
2013-09-19 23:57:00,71.2,67.8,30.02,SSW,201,0.0,0.0,89,0.00,,,0.00,Wunderground v.1.15,2013-09-20 03:57:00,